Wetterdaten: Montag, 27.01.2020
Datum Zeit Temp. Aussen Temp. o. S. Temp +5cm Feuchte Auss Luftdruck Regen Sonnenschein Regendauer Solar Windben Empfang
27.01.2020 00:00 5,3 C 4,4 C 3,9 C 94 % 1013,4 hPa 0,0 l/m 0 min 0 min 0 W/m 16,1 km/h (3 Bft) 95,74 %
27.01.2020 00:02 5,3 C 4,4 C 3,9 C 94 % 1013,5 hPa 0,0 l/m 0 min 0 min 0 W/m 16,1 km/h (3 Bft) 97,56 %
27.01.2020 00:04 5,3 C 5,0 C 3,9 C 94 % 1013,5 hPa 0,0 l/m 0 min 0 min 0 W/m 16,1 km/h (3 Bft) 95,74 %
27.01.2020 00:08 5,3 C 5,0 C 3,9 C 94 % 1013,4 hPa 0,0 l/m 0 min 0 min 0 W/m 16,1 km/h (3 Bft) 97,87 %
27.01.2020 00:10 5,3 C 5,0 C 3,9 C 94 % 1013,4 hPa 0,0 l/m 0 min 0 min 0 W/m 16,1 km/h (3 Bft) 97,83 %
27.01.2020 00:12 5,3 C 5,0 C 3,9 C 94 % 1013,4 hPa 0,0 l/m 0 min 0 min 0 W/m 12,9 km/h (3 Bft) 97,87 %
27.01.2020 00:14 5,3 C 5,0 C 3,9 C 94 % 1013,4 hPa 0,0 l/m 0 min 0 min 0 W/m 12,9 km/h (3 Bft) 95,74 %
27.01.2020 00:16 5,3 C 5,0 C 3,9 C 94 % 1013,4 hPa 0,0 l/m 0 min 0 min 0 W/m 19,3 km/h (3 Bft) 97,87 %
27.01.2020 00:18 5,3 C 5,0 C 3,9 C 94 % 1013,4 hPa 0,0 l/m 0 min 0 min 0 W/m 12,9 km/h (3 Bft) 100,00 %
27.01.2020 00:20 5,3 C 5,0 C 4,4 C 94 % 1013,3 hPa 0,0 l/m 0 min 0 min 0 W/m 12,9 km/h (3 Bft) 97,87 %
27.01.2020 00:22 5,3 C 5,0 C 4,4 C 94 % 1013,3 hPa 0,0 l/m 0 min 0 min 0 W/m 19,3 km/h (3 Bft) 100,00 %
27.01.2020 00:24 5,3 C 5,0 C 4,4 C 94 % 1013,3 hPa 0,0 l/m 0 min 0 min 0 W/m 16,1 km/h (3 Bft) 100,00 %
27.01.2020 00:26 5,4 C 5,0 C 4,4 C 94 % 1013,3 hPa 0,0 l/m 0 min 0 min 0 W/m 19,3 km/h (3 Bft) 97,87 %
27.01.2020 00:28 5,4 C 5,0 C 4,4 C 94 % 1013,2 hPa 0,0 l/m 0 min 0 min 0 W/m 19,3 km/h (3 Bft) 100,00 %
27.01.2020 00:30 5,4 C 5,0 C 4,4 C 94 % 1013,2 hPa 0,0 l/m 0 min 0 min 0 W/m 22,5 km/h (4 Bft) 100,00 %
27.01.2020 00:32 5,4 C 5,0 C 4,4 C 94 % 1013,2 hPa 0,0 l/m 0 min 0 min 0 W/m 19,3 km/h (3 Bft) 100,00 %
27.01.2020 00:34 5,4 C 5,0 C 4,4 C 94 % 1013,1 hPa 0,0 l/m 0 min 0 min 0 W/m 16,1 km/h (3 Bft) 100,00 %
27.01.2020 00:36 5,4 C 5,0 C 4,4 C 94 % 1013,1 hPa 0,0 l/m 0 min 0 min 0 W/m 16,1 km/h (3 Bft) 100,00 %
27.01.2020 00:38 5,4 C 5,0 C 4,4 C 94 % 1013,1 hPa 0,0 l/m 0 min 0 min 0 W/m 22,5 km/h (4 Bft) 100,00 %
27.01.2020 00:40 5,4 C 5,0 C 4,4 C 94 % 1013,0 hPa 0,0 l/m 0 min 0 min 0 W/m 19,3 km/h (3 Bft) 97,87 %
27.01.2020 00:42 5,4 C 5,0 C 4,4 C 94 % 1013,1 hPa 0,0 l/m 0 min 0 min 0 W/m 19,3 km/h (3 Bft) 100,00 %
27.01.2020 00:44 5,4 C 5,0 C 4,4 C 94 % 1013,0 hPa 0,0 l/m 0 min 0 min 0 W/m 25,7 km/h (4 Bft) 100,00 %
27.01.2020 00:46 5,4 C 5,0 C 4,4 C 94 % 1013,0 hPa 0,0 l/m 0 min 0 min 0 W/m 22,5 km/h (4 Bft) 100,00 %
27.01.2020 00:48 5,4 C 5,0 C 4,4 C 94 % 1013,0 hPa 0,0 l/m 0 min 0 min 0 W/m 22,5 km/h (4 Bft) 100,00 %
27.01.2020 00:50 5,4 C 5,0 C 4,4 C 94 % 1013,0 hPa 0,0 l/m 0 min 0 min 0 W/m 22,5 km/h (4 Bft) 100,00 %
27.01.2020 00:52 5,4 C 5,0 C 4,4 C 94 % 1013,0 hPa 0,0 l/m 0 min 0 min 0 W/m 22,5 km/h (4 Bft) 100,00 %
27.01.2020 00:54 5,4 C 5,0 C 4,4 C 94 % 1013,0 hPa 0,0 l/m 0 min 0 min 0 W/m 22,5 km/h (4 Bft) 97,87 %
27.01.2020 00:56 5,4 C 5,0 C 3,9 C 94 % 1012,9 hPa 0,0 l/m 0 min 0 min 0 W/m 19,3 km/h (3 Bft) 100,00 %
27.01.2020 00:58 5,4 C 5,0 C 3,9 C 94 % 1012,9 hPa 0,0 l/m 0 min 0 min 0 W/m 19,3 km/h (3 Bft) 100,00 %
27.01.2020 01:00 5,4 C 5,0 C 3,9 C 94 % 1012,9 hPa 0,0 l/m 0 min 0 min 0 W/m 25,7 km/h (4 Bft) 100,00 %
27.01.2020 01:02 5,4 C 5,0 C 3,9 C 94 % 1012,9 hPa 0,0 l/m 0 min 0 min 0 W/m 19,3 km/h (3 Bft) 100,00 %
27.01.2020 01:04 5,4 C 5,0 C 3,9 C 94 % 1012,8 hPa 0,0 l/m 0 min 0 min 0 W/m 16,1 km/h (3 Bft) 100,00 %
27.01.2020 01:06 5,4 C 5,0 C 3,9 C 94 % 1012,8 hPa 0,0 l/m 0 min 0 min 0 W/m 19,3 km/h (3 Bft) 100,00 %
27.01.2020 01:08 5,4 C 5,0 C 3,9 C 94 % 1012,8 hPa 0,0 l/m 0 min 0 min 0 W/m 22,5 km/h (4 Bft) 100,00 %
27.01.2020 01:10 5,4 C 4,4 C 3,9 C 94 % 1012,7 hPa 0,0 l/m 0 min 0 min 0 W/m 19,3 km/h (3 Bft) 100,00 %
27.01.2020 01:12 5,4 C 4,4 C 3,9 C 94 % 1012,7 hPa 0,0 l/m 0 min 0 min 0 W/m 16,1 km/h (3 Bft) 100,00 %
27.01.2020 01:14 5,4 C 4,4 C 3,9 C 94 % 1012,7 hPa 0,0 l/m 0 min 0 min 0 W/m 19,3 km/h (3 Bft) 97,83 %
27.01.2020 01:16 5,4 C 4,4 C 3,9 C 94 % 1012,7 hPa 0,0 l/m 0 min 0 min 0 W/m 16,1 km/h (3 Bft) 100,00 %
27.01.2020 01:18 5,4 C 4,4 C 3,9 C 94 % 1012,7 hPa 0,0 l/m 0 min 0 min 0 W/m 19,3 km/h (3 Bft) 100,00 %
27.01.2020 01:20 5,4 C 4,4 C 3,9 C 94 % 1012,6 hPa 0,0 l/m 0 min 0 min 0 W/m 19,3 km/h (3 Bft) 100,00 %
27.01.2020 01:22 5,3 C 4,4 C 3,9 C 94 % 1012,6 hPa 0,0 l/m 0 min 0 min 0 W/m 22,5 km/h (4 Bft) 100,00 %
27.01.2020 01:24 5,3 C 4,4 C 3,9 C 94 % 1012,6 hPa 0,0 l/m 0 min 0 min 0 W/m 19,3 km/h (3 Bft) 100,00 %
27.01.2020 01:26 5,3 C 4,4 C 3,9 C 94 % 1012,6 hPa 0,0 l/m 0 min 0 min 0 W/m 19,3 km/h (3 Bft) 100,00 %
27.01.2020 01:28 5,3 C 4,4 C 3,9 C 94 % 1012,6 hPa 0,0 l/m 0 min 0 min 0 W/m 16,1 km/h (3 Bft) 97,87 %
27.01.2020 01:30 5,3 C 4,4 C 3,9 C 94 % 1012,6 hPa 0,0 l/m 0 min 0 min 0 W/m 19,3 km/h (3 Bft) 97,87 %
27.01.2020 01:32 5,3 C 4,4 C 3,9 C 94 % 1012,6 hPa 0,0 l/m 0 min 0 min 0 W/m 22,5 km/h (4 Bft) 97,87 %
27.01.2020 01:34 5,3 C 5,0 C 3,9 C 94 % 1012,6 hPa 0,0 l/m 0 min 0 min 0 W/m 22,5 km/h (4 Bft) 97,87 %
27.01.2020 01:36 5,3 C 5,0 C 3,9 C 94 % 1012,6 hPa 0,0 l/m 0 min 0 min 0 W/m 19,3 km/h (3 Bft) 97,87 %
27.01.2020 01:38 5,3 C 5,0 C 3,9 C 94 % 1012,6 hPa 0,0 l/m 0 min 0 min 0 W/m 16,1 km/h (3 Bft) 97,83 %
27.01.2020 01:40 5,3 C 5,0 C 3,9 C 94 % 1012,5 hPa 0,0 l/m 0 min 0 min 0 W/m 16,1 km/h (3 Bft) 97,87 %
27.01.2020 01:42 5,3 C 5,0 C 3,9 C 94 % 1012,5 hPa 0,0 l/m 0 min 0 min 0 W/m 16,1 km/h (3 Bft) 97,87 %
27.01.2020 01:44 5,3 C 5,0 C 3,9 C 94 % 1012,5 hPa 0,0 l/m 0 min 0 min 0 W/m 29,0 km/h (5 Bft) 95,74 %
27.01.2020 01:46 5,3 C 5,0 C 3,9 C 94 % 1012,4 hPa 0,0 l/m 0 min 0 min 0 W/m 16,1 km/h (3 Bft) 97,87 %
27.01.2020 01:48 5,3 C 4,4 C 3,9 C 94 % 1012,4 hPa 0,0 l/m 0 min 0 min 0 W/m 16,1 km/h (3 Bft) 97,83 %
27.01.2020 01:50 5,3 C 4,4 C 3,9 C 94 % 1012,4 hPa 0,0 l/m 0 min 0 min 0 W/m 25,7 km/h (4 Bft) 97,87 %
27.01.2020 01:52 5,3 C 4,4 C 3,9 C 94 % 1012,4 hPa 0,0 l/m 0 min 0 min 0 W/m 16,1 km/h (3 Bft) 95,74 %
27.01.2020 01:54 5,3 C 4,4 C 3,9 C 94 % 1012,5 hPa 0,0 l/m 0 min 0 min 0 W/m 22,5 km/h (4 Bft) 95,74 %
27.01.2020 01:56 5,3 C 4,4 C 3,9 C 95 % 1012,4 hPa 0,0 l/m 0 min 0 min 0 W/m 16,1 km/h (3 Bft) 95,74 %
27.01.2020 01:58 5,3 C 4,4 C 3,9 C 95 % 1012,4 hPa 0,0 l/m 0 min 0 min 0 W/m 25,7 km/h (4 Bft) 97,87 %
27.01.2020 02:00 5,3 C 4,4 C 3,9 C 95 % 1012,4 hPa 0,0 l/m 0 min 0 min 0 W/m 16,1 km/h (3 Bft) 95,65 %
27.01.2020 02:02 5,3 C 4,4 C 3,9 C 94 % 1012,4 hPa 0,0 l/m 0 min 0 min 0 W/m 19,3 km/h (3 Bft) 95,74 %
27.01.2020 02:04 5,3 C 4,4 C 3,9 C 94 % 1012,4 hPa 0,0 l/m 0 min 0 min 0 W/m 19,3 km/h (3 Bft) 97,87 %
27.01.2020 02:06 5,3 C 4,4 C 3,9 C 94 % 1012,4 hPa 0,0 l/m 0 min 0 min 0 W/m 19,3 km/h (3 Bft) 95,74 %
27.01.2020 02:08 5,3 C 4,4 C 3,9 C 94 % 1012,3 hPa 0,0 l/m 0 min 0 min 0 W/m 16,1 km/h (3 Bft) 97,87 %
27.01.2020 02:10 5,3 C 4,4 C 3,9 C 94 % 1012,3 hPa 0,0 l/m 0 min 0 min 0 W/m 16,1 km/h (3 Bft) 95,74 %
27.01.2020 02:12 5,3 C 4,4 C 3,9 C 94 % 1012,3 hPa 0,0 l/m 0 min 0 min 0 W/m 19,3 km/h (3 Bft) 97,83 %
27.01.2020 02:14 5,3 C 4,4 C 3,9 C 94 % 1012,3 hPa 0,0 l/m 0 min 0 min 0 W/m 22,5 km/h (4 Bft) 97,87 %
27.01.2020 02:16 5,3 C 4,4 C 3,9 C 94 % 1012,3 hPa 0,0 l/m 0 min 0 min 0 W/m 19,3 km/h (3 Bft) 97,87 %
27.01.2020 02:18 5,3 C 4,4 C 3,9 C 94 % 1012,3 hPa 0,0 l/m 0 min 0 min 0 W/m 22,5 km/h (4 Bft) 97,87 %
27.01.2020 02:20 5,3 C 4,4 C 3,9 C 94 % 1012,3 hPa 0,0 l/m 0 min 0 min 0 W/m 16,1 km/h (3 Bft) 95,74 %
27.01.2020 02:22 5,3 C 4,4 C 3,9 C 95 % 1012,2 hPa 0,0 l/m 0 min 0 min 0 W/m 16,1 km/h (3 Bft) 97,87 %
27.01.2020 02:24 5,3 C 4,4 C 3,9 C 95 % 1012,2 hPa 0,0 l/m 0 min 0 min 0 W/m 19,3 km/h (3 Bft) 97,83 %
27.01.2020 02:26 5,3 C 5,0 C 3,9 C 95 % 1012,2 hPa 0,0 l/m 0 min 0 min 0 W/m 19,3 km/h (3 Bft) 95,74 %
27.01.2020 02:28 5,3 C 5,0 C 3,9 C 95 % 1012,1 hPa 0,0 l/m 0 min 0 min 0 W/m 16,1 km/h (3 Bft) 97,83 %
27.01.2020 02:30 5,3 C 5,0 C 3,9 C 95 % 1012,2 hPa 0,0 l/m 0 min 0 min 0 W/m 22,5 km/h (4 Bft) 97,87 %
27.01.2020 02:32 5,3 C 5,0 C 3,9 C 95 % 1012,2 hPa 0,0 l/m 0 min 0 min 0 W/m 16,1 km/h (3 Bft) 93,62 %
27.01.2020 02:34 5,3 C 5,0 C 4,4 C 95 % 1012,2 hPa 0,0 l/m 0 min 0 min 0 W/m 16,1 km/h (3 Bft) 95,65 %
27.01.2020 02:36 5,3 C 5,0 C 4,4 C 95 % 1012,2 hPa 0,0 l/m 0 min 0 min 0 W/m 16,1 km/h (3 Bft) 95,74 %
27.01.2020 02:38 5,3 C 5,0 C 4,4 C 95 % 1012,2 hPa 0,0 l/m 0 min 0 min 0 W/m 19,3 km/h (3 Bft) 95,74 %
27.01.2020 02:40 5,3 C 5,0 C 4,4 C 95 % 1012,2 hPa 0,0 l/m 0 min 0 min 0 W/m 12,9 km/h (3 Bft) 95,74 %
27.01.2020 02:42 5,3 C 5,0 C 4,4 C 94 % 1012,2 hPa 0,0 l/m 0 min 0 min 0 W/m 16,1 km/h (3 Bft) 95,74 %
27.01.2020 02:44 5,3 C 5,0 C 4,4 C 94 % 1012,1 hPa 0,0 l/m 0 min 0 min 0 W/m 16,1 km/h (3 Bft) 95,74 %
27.01.2020 02:46 5,3 C 5,0 C 4,4 C 94 % 1012,1 hPa 0,0 l/m 0 min 0 min 0 W/m 16,1 km/h (3 Bft) 95,65 %
27.01.2020 02:48 5,3 C 5,0 C 4,4 C 95 % 1012,1 hPa 0,0 l/m 0 min 0 min 0 W/m 22,5 km/h (4 Bft) 95,74 %
27.01.2020 02:50 5,3 C 4,4 C 3,9 C 95 % 1012,1 hPa 0,0 l/m 0 min 2 min 0 W/m 19,3 km/h (3 Bft) 95,74 %
27.01.2020 02:52 5,4 C 4,4 C 3,9 C 95 % 1012,0 hPa 0,0 l/m 0 min 2 min 0 W/m 16,1 km/h (3 Bft) 95,74 %
27.01.2020 02:54 5,4 C 4,4 C 3,9 C 95 % 1012,0 hPa 0,0 l/m 0 min 2 min 0 W/m 16,1 km/h (3 Bft) 95,74 %
27.01.2020 02:56 5,4 C 4,4 C 3,9 C 95 % 1012,0 hPa 0,0 l/m 0 min 0 min 0 W/m 16,1 km/h (3 Bft) 95,74 %
27.01.2020 02:58 5,4 C 4,4 C 3,9 C 95 % 1012,0 hPa 0,0 l/m 0 min 0 min 0 W/m 19,3 km/h (3 Bft) 97,83 %
27.01.2020 03:00 5,4 C 4,4 C 3,9 C 95 % 1012,0 hPa 0,0 l/m 0 min 0 min 0 W/m 19,3 km/h (3 Bft) 97,87 %
27.01.2020 03:02 5,4 C 4,4 C 3,9 C 95 % 1011,9 hPa 0,0 l/m 0 min 2 min 0 W/m 19,3 km/h (3 Bft) 95,74 %
27.01.2020 03:04 5,4 C 4,4 C 3,9 C 95 % 1011,9 hPa 0,0 l/m 0 min 0 min 0 W/m 19,3 km/h (3 Bft) 97,87 %
27.01.2020 03:06 5,4 C 4,4 C 3,9 C 95 % 1011,9 hPa 0,0 l/m 0 min 0 min 0 W/m 16,1 km/h (3 Bft) 97,87 %
27.01.2020 03:08 5,4 C 4,4 C 3,9 C 95 % 1011,9 hPa 0,0 l/m 0 min 0 min 0 W/m 16,1 km/h (3 Bft) 97,87 %
27.01.2020 03:10 5,5 C 4,4 C 3,9 C 95 % 1011,9 hPa 0,0 l/m 0 min 2 min 0 W/m 19,3 km/h (3 Bft) 97,83 %
27.01.2020 03:12 5,5 C 4,4 C 3,9 C 95 % 1011,9 hPa 0,0 l/m 0 min 0 min 0 W/m 16,1 km/h (3 Bft) 97,87 %
27.01.2020 03:14 5,5 C 4,4 C 3,9 C 95 % 1011,8 hPa 0,0 l/m 0 min 2 min 0 W/m 22,5 km/h (4 Bft) 97,87 %
27.01.2020 03:16 5,6 C 4,4 C 3,9 C 95 % 1011,8 hPa 0,0 l/m 0 min 2 min 0 W/m 19,3 km/h (3 Bft) 97,87 %
27.01.2020 03:18 5,6 C 4,4 C 3,9 C 95 % 1011,7 hPa 0,0 l/m 0 min 2 min 0 W/m 12,9 km/h (3 Bft) 97,87 %
27.01.2020 03:20 5,6 C 4,4 C 3,9 C 95 % 1011,8 hPa 0,0 l/m 0 min 2 min 0 W/m 19,3 km/h (3 Bft) 97,87 %
27.01.2020 03:22 5,6 C 4,4 C 3,9 C 95 % 1011,6 hPa 0,0 l/m 0 min 0 min 0 W/m 12,9 km/h (3 Bft) 95,65 %
27.01.2020 03:24 5,6 C 4,4 C 3,9 C 95 % 1011,6 hPa 0,0 l/m 0 min 2 min 0 W/m 16,1 km/h (3 Bft) 97,87 %
27.01.2020 03:26 5,6 C 4,4 C 3,9 C 95 % 1011,6 hPa 0,0 l/m 0 min 2 min 0 W/m 19,3 km/h (3 Bft) 97,87 %
27.01.2020 03:28 5,6 C 4,4 C 3,9 C 95 % 1011,6 hPa 0,0 l/m 0 min 2 min 0 W/m 16,1 km/h (3 Bft) 100,00 %
27.01.2020 03:30 5,6 C 4,4 C 3,9 C 95 % 1011,6 hPa 0,0 l/m 0 min 2 min 0 W/m 19,3 km/h (3 Bft) 100,00 %
27.01.2020 03:32 5,7 C 4,4 C 3,9 C 95 % 1011,5 hPa 0,0 l/m 0 min 2 min 0 W/m 16,1 km/h (3 Bft) 100,00 %
27.01.2020 03:34 5,7 C 4,4 C 3,9 C 95 % 1011,5 hPa 0,0 l/m 0 min 2 min 0 W/m 22,5 km/h (4 Bft) 100,00 %
27.01.2020 03:36 5,7 C 5,0 C 3,9 C 95 % 1011,5 hPa 0,0 l/m 0 min 0 min 0 W/m 19,3 km/h (3 Bft) 100,00 %
27.01.2020 03:38 5,7 C 5,0 C 3,9 C 95 % 1011,4 hPa 0,0 l/m 0 min 0 min 0 W/m 16,1 km/h (3 Bft) 100,00 %
27.01.2020 03:40 5,7 C 5,0 C 4,4 C 95 % 1011,4 hPa 0,0 l/m 0 min 0 min 0 W/m 19,3 km/h (3 Bft) 100,00 %
27.01.2020 03:42 5,8 C 5,0 C 4,4 C 95 % 1011,4 hPa 0,0 l/m 0 min 0 min 0 W/m 19,3 km/h (3 Bft) 100,00 %
27.01.2020 03:44 5,8 C 5,0 C 4,4 C 96 % 1011,3 hPa 0,0 l/m 0 min 0 min 0 W/m 22,5 km/h (4 Bft) 97,83 %
27.01.2020 03:46 5,8 C 5,0 C 4,4 C 96 % 1011,3 hPa 0,0 l/m 0 min 0 min 0 W/m 22,5 km/h (4 Bft) 100,00 %
27.01.2020 03:48 5,8 C 5,0 C 4,4 C 96 % 1011,2 hPa 0,0 l/m 0 min 0 min 0 W/m 22,5 km/h (4 Bft) 100,00 %
27.01.2020 03:50 5,8 C 5,0 C 4,4 C 96 % 1011,2 hPa 0,0 l/m 0 min 0 min 0 W/m 19,3 km/h (3 Bft) 100,00 %
27.01.2020 03:52 5,8 C 5,0 C 4,4 C 96 % 1011,3 hPa 0,0 l/m 0 min 0 min 0 W/m 19,3 km/h (3 Bft) 100,00 %
27.01.2020 03:54 5,9 C 5,0 C 4,4 C 96 % 1011,3 hPa 0,0 l/m 0 min 0 min 0 W/m 19,3 km/h (3 Bft) 100,00 %
27.01.2020 03:56 5,9 C 5,0 C 4,4 C 96 % 1011,2 hPa 0,0 l/m 0 min 0 min 0 W/m 19,3 km/h (3 Bft) 100,00 %
27.01.2020 03:58 5,9 C 5,0 C 4,4 C 96 % 1011,1 hPa 0,0 l/m 0 min 0 min 0 W/m 29,0 km/h (5 Bft) 100,00 %
27.01.2020 04:00 5,9 C 5,0 C 4,4 C 96 % 1011,2 hPa 0,0 l/m 0 min 0 min 0 W/m 22,5 km/h (4 Bft) 100,00 %
27.01.2020 04:02 5,9 C 5,6 C 4,4 C 96 % 1011,1 hPa 0,0 l/m 0 min 0 min 0 W/m 22,5 km/h (4 Bft) 92,86 %
27.01.2020 04:04 6,0 C 5,6 C 4,4 C 96 % 1011,0 hPa 0,0 l/m 0 min 0 min 0 W/m 19,3 km/h (3 Bft) 95,74 %
27.01.2020 04:06 6,0 C 5,6 C 4,4 C 96 % 1011,0 hPa 0,0 l/m 0 min 0 min 0 W/m 22,5 km/h (4 Bft) 97,87 %
27.01.2020 04:08 6,1 C 5,6 C 4,4 C 96 % 1011,0 hPa 0,0 l/m 0 min 0 min 0 W/m 19,3 km/h (3 Bft) 97,83 %
27.01.2020 04:10 6,1 C 5,6 C 4,4 C 96 % 1010,9 hPa 0,0 l/m 0 min 0 min 0 W/m 22,5 km/h (4 Bft) 97,87 %
27.01.2020 04:12 6,1 C 5,6 C 4,4 C 96 % 1010,9 hPa 0,0 l/m 0 min 0 min 0 W/m 22,5 km/h (4 Bft) 97,87 %
27.01.2020 04:14 6,1 C 5,6 C 4,4 C 96 % 1010,9 hPa 0,0 l/m 0 min 0 min 0 W/m 22,5 km/h (4 Bft) 97,87 %
27.01.2020 04:16 6,1 C 5,6 C 4,4 C 96 % 1010,9 hPa 0,0 l/m 0 min 2 min 0 W/m 19,3 km/h (3 Bft) 95,74 %
27.01.2020 04:18 6,1 C 5,6 C 4,4 C 96 % 1010,9 hPa 0,0 l/m 0 min 0 min 0 W/m 22,5 km/h (4 Bft) 97,87 %
27.01.2020 04:20 6,1 C 5,6 C 4,4 C 96 % 1010,8 hPa 0,0 l/m 0 min 0 min 0 W/m 19,3 km/h (3 Bft) 97,83 %
27.01.2020 04:22 6,2 C 5,6 C 4,4 C 96 % 1010,8 hPa 0,0 l/m 0 min 2 min 0 W/m 19,3 km/h (3 Bft) 95,74 %
27.01.2020 04:24 6,2 C 5,6 C 4,4 C 96 % 1010,8 hPa 0,0 l/m 0 min 0 min 0 W/m 19,3 km/h (3 Bft) 97,87 %
27.01.2020 04:26 6,2 C 5,6 C 4,4 C 96 % 1010,9 hPa 0,0 l/m 0 min 2 min 0 W/m 16,1 km/h (3 Bft) 95,74 %
27.01.2020 04:28 6,2 C 5,6 C 4,4 C 96 % 1010,8 hPa 0,0 l/m 0 min 2 min 0 W/m 16,1 km/h (3 Bft) 97,87 %
27.01.2020 04:30 6,2 C 5,6 C 4,4 C 96 % 1010,8 hPa 0,0 l/m 0 min 2 min 0 W/m 16,1 km/h (3 Bft) 97,83 %
27.01.2020 04:32 6,2 C 5,6 C 4,4 C 96 % 1010,8 hPa 0,0 l/m 0 min 0 min 0 W/m 16,1 km/h (3 Bft) 97,87 %
27.01.2020 04:34 6,2 C 5,6 C 4,4 C 96 % 1010,7 hPa 0,0 l/m 0 min 0 min 0 W/m 12,9 km/h (3 Bft) 95,74 %
27.01.2020 04:36 6,2 C 5,6 C 4,4 C 96 % 1010,7 hPa 0,0 l/m 0 min 0 min 0 W/m 19,3 km/h (3 Bft) 97,87 %
27.01.2020 04:38 6,2 C 5,6 C 4,4 C 96 % 1010,7 hPa 0,0 l/m 0 min 2 min 0 W/m 22,5 km/h (4 Bft) 93,62 %
27.01.2020 04:40 6,2 C 5,6 C 4,4 C 95 % 1010,7 hPa 0,0 l/m 0 min 2 min 0 W/m 19,3 km/h (3 Bft) 97,87 %
27.01.2020 04:42 6,2 C 5,6 C 4,4 C 96 % 1010,7 hPa 0,0 l/m 0 min 2 min 0 W/m 19,3 km/h (3 Bft) 97,87 %
27.01.2020 04:44 6,2 C 5,6 C 4,4 C 96 % 1010,6 hPa 0,0 l/m 0 min 2 min 0 W/m 16,1 km/h (3 Bft) 97,83 %
27.01.2020 04:46 6,3 C 5,6 C 4,4 C 96 % 1010,6 hPa 0,0 l/m 0 min 2 min 0 W/m 19,3 km/h (3 Bft) 93,62 %
27.01.2020 04:48 6,3 C 5,6 C 4,4 C 95 % 1010,6 hPa 0,0 l/m 0 min 2 min 0 W/m 16,1 km/h (3 Bft) 100,00 %
27.01.2020 04:50 6,3 C 5,6 C 4,4 C 95 % 1010,6 hPa 0,0 l/m 0 min 0 min 0 W/m 22,5 km/h (4 Bft) 100,00 %
27.01.2020 04:52 6,3 C 5,6 C 4,4 C 95 % 1010,5 hPa 0,0 l/m 0 min 2 min 0 W/m 19,3 km/h (3 Bft) 97,87 %
27.01.2020 04:54 6,4 C 5,6 C 5,0 C 95 % 1010,5 hPa 0,0 l/m 0 min 2 min 0 W/m 19,3 km/h (3 Bft) 100,00 %
27.01.2020 04:56 6,4 C 5,6 C 5,0 C 95 % 1010,6 hPa 0,0 l/m 0 min 2 min 0 W/m 16,1 km/h (3 Bft) 97,87 %
27.01.2020 04:58 6,5 C 5,6 C 5,0 C 95 % 1010,5 hPa 0,0 l/m 0 min 2 min 0 W/m 16,1 km/h (3 Bft) 97,87 %
27.01.2020 05:00 6,5 C 5,6 C 5,0 C 96 % 1010,6 hPa 0,0 l/m 0 min 2 min 0 W/m 16,1 km/h (3 Bft) 95,74 %
27.01.2020 05:02 6,5 C 5,6 C 5,0 C 96 % 1010,6 hPa 0,2 l/m 0 min 2 min 0 W/m 12,9 km/h (3 Bft) 95,74 %
27.01.2020 05:04 6,6 C 5,6 C 5,0 C 96 % 1010,6 hPa 0,0 l/m 0 min 2 min 0 W/m 19,3 km/h (3 Bft) 97,87 %
27.01.2020 05:06 6,6 C 5,6 C 5,0 C 96 % 1010,6 hPa 0,0 l/m 0 min 2 min 0 W/m 19,3 km/h (3 Bft) 95,65 %
27.01.2020 05:08 6,6 C 5,6 C 5,0 C 96 % 1010,5 hPa 0,0 l/m 0 min 2 min 0 W/m 6,4 km/h (2 Bft) 97,87 %
27.01.2020 05:10 6,6 C 5,6 C 5,0 C 96 % 1010,6 hPa 0,0 l/m 0 min 2 min 0 W/m 12,9 km/h (3 Bft) 97,87 %
27.01.2020 05:12 6,7 C 5,6 C 5,0 C 96 % 1010,5 hPa 0,0 l/m 0 min 2 min 0 W/m 19,3 km/h (3 Bft) 97,87 %
27.01.2020 05:14 6,7 C 5,6 C 5,0 C 95 % 1010,5 hPa 0,0 l/m 0 min 2 min 0 W/m 12,9 km/h (3 Bft) 95,74 %
27.01.2020 05:16 6,7 C 5,6 C 5,0 C 95 % 1010,5 hPa 0,0 l/m 0 min 2 min 0 W/m 19,3 km/h (3 Bft) 97,87 %
27.01.2020 05:18 6,7 C 5,6 C 5,0 C 95 % 1010,5 hPa 0,0 l/m 0 min 2 min 0 W/m 16,1 km/h (3 Bft) 97,83 %
27.01.2020 05:20 6,8 C 5,6 C 5,0 C 96 % 1010,5 hPa 0,0 l/m 0 min 2 min 0 W/m 12,9 km/h (3 Bft) 97,87 %
27.01.2020 05:22 6,8 C 5,6 C 5,0 C 96 % 1010,5 hPa 0,0 l/m 0 min 2 min 0 W/m 16,1 km/h (3 Bft) 97,87 %
27.01.2020 05:24 6,8 C 5,6 C 5,0 C 96 % 1010,5 hPa 0,0 l/m 0 min 2 min 0 W/m 16,1 km/h (3 Bft) 97,87 %
27.01.2020 05:26 6,8 C 5,6 C 5,0 C 96 % 1010,5 hPa 0,0 l/m 0 min 2 min 0 W/m 16,1 km/h (3 Bft) 97,87 %
27.01.2020 05:28 6,9 C 5,6 C 5,0 C 96 % 1010,5 hPa 0,0 l/m 0 min 2 min 0 W/m 12,9 km/h (3 Bft) 97,87 %
27.01.2020 05:30 6,9 C 5,6 C 5,0 C 96 % 1010,5 hPa 0,2 l/m 0 min 2 min 0 W/m 12,9 km/h (3 Bft) 97,83 %
27.01.2020 05:32 6,9 C 5,6 C 5,0 C 96 % 1010,5 hPa 0,0 l/m 0 min 2 min 0 W/m 16,1 km/h (3 Bft) 95,74 %
27.01.2020 05:34 6,9 C 5,6 C 5,0 C 96 % 1010,5 hPa 0,0 l/m 0 min 2 min 0 W/m 16,1 km/h (3 Bft) 95,74 %
27.01.2020 05:36 6,9 C 5,6 C 5,0 C 96 % 1010,4 hPa 0,0 l/m 0 min 2 min 0 W/m 12,9 km/h (3 Bft) 95,74 %
27.01.2020 05:38 7,0 C 5,6 C 5,0 C 96 % 1010,4 hPa 0,0 l/m 0 min 2 min 0 W/m 16,1 km/h (3 Bft) 95,74 %
27.01.2020 05:40 7,0 C 5,6 C 5,0 C 96 % 1010,4 hPa 0,0 l/m 0 min 2 min 0 W/m 12,9 km/h (3 Bft) 95,74 %
27.01.2020 05:42 7,0 C 5,6 C 5,0 C 96 % 1010,4 hPa 0,2 l/m 0 min 2 min 0 W/m 16,1 km/h (3 Bft) 100,00 %
27.01.2020 05:44 7,1 C 5,6 C 5,0 C 96 % 1010,4 hPa 0,0 l/m 0 min 2 min 0 W/m 16,1 km/h (3 Bft) 100,00 %
27.01.2020 05:46 7,1 C 5,6 C 5,0 C 96 % 1010,3 hPa 0,0 l/m 0 min 2 min 0 W/m 6,4 km/h (2 Bft) 100,00 %
27.01.2020 05:48 7,1 C 6,1 C 5,0 C 96 % 1010,3 hPa 0,2 l/m 0 min 2 min 0 W/m 0,0 km/h (0 Bft) 100,00 %
27.01.2020 05:50 7,1 C 6,1 C 5,0 C 96 % 1010,3 hPa 0,0 l/m 0 min 2 min 0 W/m 19,3 km/h (3 Bft) 100,00 %
27.01.2020 05:52 7,1 C 6,1 C 5,6 C 96 % 1010,2 hPa 0,0 l/m 0 min 2 min 0 W/m 16,1 km/h (3 Bft) 100,00 %
27.01.2020 05:54 7,2 C 6,1 C 5,6 C 96 % 1010,2 hPa 0,0 l/m 0 min 2 min 0 W/m 16,1 km/h (3 Bft) 100,00 %
27.01.2020 05:56 7,2 C 6,1 C 5,6 C 96 % 1010,2 hPa 0,0 l/m 0 min 2 min 0 W/m 16,1 km/h (3 Bft) 97,87 %
27.01.2020 05:58 7,2 C 6,1 C 5,6 C 96 % 1010,2 hPa 0,0 l/m 0 min 2 min 0 W/m 19,3 km/h (3 Bft) 97,87 %
27.01.2020 06:00 7,2 C 6,1 C 5,6 C 96 % 1010,0 hPa 0,0 l/m 0 min 2 min 0 W/m 19,3 km/h (3 Bft) 97,87 %
27.01.2020 06:02 7,3 C 6,1 C 5,6 C 96 % 1010,1 hPa 0,0 l/m 0 min 2 min 0 W/m 16,1 km/h (3 Bft) 95,74 %
27.01.2020 06:04 7,3 C 6,1 C 5,6 C 96 % 1010,1 hPa 0,0 l/m 0 min 2 min 0 W/m 16,1 km/h (3 Bft) 97,83 %
27.01.2020 06:06 7,3 C 6,1 C 5,6 C 96 % 1010,1 hPa 0,2 l/m 0 min 2 min 0 W/m 32,2 km/h (5 Bft) 97,87 %
27.01.2020 06:08 7,3 C 6,1 C 5,6 C 96 % 1010,1 hPa 0,0 l/m 0 min 2 min 0 W/m 19,3 km/h (3 Bft) 97,87 %
27.01.2020 06:10 7,3 C 6,1 C 5,6 C 96 % 1010,2 hPa 0,0 l/m 0 min 2 min 0 W/m 19,3 km/h (3 Bft) 95,74 %
27.01.2020 06:12 7,3 C 6,1 C 5,6 C 96 % 1010,1 hPa 0,2 l/m 0 min 2 min 0 W/m 22,5 km/h (4 Bft) 97,87 %
27.01.2020 06:14 7,3 C 6,1 C 5,6 C 96 % 1010,1 hPa 0,0 l/m 0 min 2 min 0 W/m 16,1 km/h (3 Bft) 97,87 %
27.01.2020 06:16 7,4 C 6,1 C 5,6 C 96 % 1010,1 hPa 0,0 l/m 0 min 2 min 0 W/m 12,9 km/h (3 Bft) 97,83 %
27.01.2020 06:18 7,4 C 6,1 C 5,6 C 97 % 1010,0 hPa 0,2 l/m 0 min 2 min 0 W/m 16,1 km/h (3 Bft) 95,74 %
27.01.2020 06:20 7,4 C 6,1 C 5,6 C 97 % 1010,0 hPa 0,0 l/m 0 min 0 min 0 W/m 16,1 km/h (3 Bft) 97,87 %
27.01.2020 06:22 7,4 C 6,1 C 5,6 C 97 % 1010,0 hPa 0,0 l/m 0 min 0 min 0 W/m 12,9 km/h (3 Bft) 95,74 %
27.01.2020 06:24 7,4 C 6,1 C 5,6 C 97 % 1010,0 hPa 0,0 l/m 0 min 0 min 0 W/m 16,1 km/h (3 Bft) 97,87 %
27.01.2020 06:26 7,4 C 6,1 C 5,6 C 97 % 1010,0 hPa 0,0 l/m 0 min 0 min 0 W/m 12,9 km/h (3 Bft) 97,87 %
27.01.2020 06:28 7,4 C 6,1 C 5,6 C 97 % 1010,0 hPa 0,0 l/m 0 min 0 min 0 W/m 22,5 km/h (4 Bft) 97,83 %
27.01.2020 06:30 7,4 C 6,1 C 5,6 C 97 % 1010,1 hPa 0,0 l/m 0 min 0 min 0 W/m 25,7 km/h (4 Bft) 95,74 %
27.01.2020 06:32 7,4 C 6,1 C 5,6 C 97 % 1010,0 hPa 0,0 l/m 0 min 0 min 0 W/m 19,3 km/h (3 Bft) 97,87 %
27.01.2020 06:34 7,4 C 6,1 C 5,6 C 97 % 1010,1 hPa 0,0 l/m 0 min 0 min 0 W/m 16,1 km/h (3 Bft) 100,00 %
27.01.2020 06:36 7,4 C 6,1 C 5,6 C 97 % 1010,0 hPa 0,0 l/m 0 min 0 min 0 W/m 12,9 km/h (3 Bft) 97,87 %
27.01.2020 06:38 7,4 C 6,1 C 5,6 C 97 % 1010,1 hPa 0,0 l/m 0 min 0 min 0 W/m 19,3 km/h (3 Bft) 97,87 %
27.01.2020 06:40 7,4 C 6,1 C 5,6 C 97 % 1010,0 hPa 0,0 l/m 0 min 0 min 0 W/m 16,1 km/h (3 Bft) 95,65 %
27.01.2020 06:42 7,4 C 6,1 C 5,6 C 97 % 1010,0 hPa 0,0 l/m 0 min 0 min 0 W/m 12,9 km/h (3 Bft) 93,62 %
27.01.2020 06:44 7,4 C 6,1 C 5,6 C 97 % 1009,9 hPa 0,0 l/m 0 min 0 min 0 W/m 16,1 km/h (3 Bft) 95,74 %
27.01.2020 06:46 7,4 C 6,1 C 5,6 C 97 % 1009,9 hPa 0,0 l/m 0 min 0 min 0 W/m 16,1 km/h (3 Bft) 95,74 %
27.01.2020 06:48 7,4 C 6,1 C 5,6 C 97 % 1009,9 hPa 0,0 l/m 0 min 0 min 0 W/m 16,1 km/h (3 Bft) 95,74 %
27.01.2020 06:50 7,4 C 6,1 C 5,6 C 97 % 1010,0 hPa 0,0 l/m 0 min 0 min 0 W/m 19,3 km/h (3 Bft) 95,65 %
27.01.2020 06:52 7,4 C 6,1 C 5,6 C 97 % 1009,9 hPa 0,0 l/m 0 min 0 min 0 W/m 12,9 km/h (3 Bft) 93,62 %
27.01.2020 06:54 7,4 C 6,1 C 5,6 C 97 % 1010,0 hPa 0,0 l/m 0 min 0 min 0 W/m 12,9 km/h (3 Bft) 93,62 %
27.01.2020 06:56 7,4 C 6,1 C 5,6 C 97 % 1010,0 hPa 0,0 l/m 0 min 0 min 0 W/m 19,3 km/h (3 Bft) 97,87 %
27.01.2020 06:58 7,4 C 6,1 C 5,6 C 97 % 1009,9 hPa 0,0 l/m 0 min 0 min 0 W/m 22,5 km/h (4 Bft) 93,62 %
27.01.2020 07:00 7,3 C 6,1 C 5,6 C 97 % 1010,0 hPa 0,0 l/m 0 min 0 min 0 W/m 16,1 km/h (3 Bft) 97,87 %
27.01.2020 07:02 7,3 C 6,1 C 5,6 C 97 % 1010,0 hPa 0,0 l/m 0 min 0 min 0 W/m 22,5 km/h (4 Bft) 97,83 %
27.01.2020 07:04 7,3 C 6,1 C 5,6 C 97 % 1010,0 hPa 0,0 l/m 0 min 0 min 0 W/m 19,3 km/h (3 Bft) 97,87 %
27.01.2020 07:06 7,3 C 6,1 C 5,6 C 97 % 1009,9 hPa 0,0 l/m 0 min 0 min 0 W/m 25,7 km/h (4 Bft) 97,87 %
27.01.2020 07:08 7,3 C 6,1 C 5,6 C 97 % 1009,9 hPa 0,0 l/m 0 min 0 min 0 W/m 19,3 km/h (3 Bft) 95,74 %
27.01.2020 07:10 7,3 C 6,1 C 5,6 C 97 % 1009,9 hPa 0,0 l/m 0 min 0 min 0 W/m 16,1 km/h (3 Bft) 97,87 %
27.01.2020 07:12 7,3 C 6,1 C 5,6 C 97 % 1009,9 hPa 0,0 l/m 0 min 0 min 0 W/m 19,3 km/h (3 Bft) 97,87 %
27.01.2020 07:14 7,3 C 6,1 C 5,6 C 97 % 1009,8 hPa 0,0 l/m 0 min 0 min 0 W/m 19,3 km/h (3 Bft) 91,30 %
27.01.2020 07:16 7,3 C 6,1 C 5,6 C 97 % 1009,8 hPa 0,0 l/m 0 min 0 min 0 W/m 19,3 km/h (3 Bft) 97,87 %
27.01.2020 07:18 7,3 C 6,1 C 5,6 C 97 % 1009,8 hPa 0,0 l/m 0 min 0 min 0 W/m 25,7 km/h (4 Bft) 97,87 %
27.01.2020 07:20 7,3 C 6,1 C 5,6 C 97 % 1009,8 hPa 0,0 l/m 0 min 0 min 0 W/m 16,1 km/h (3 Bft) 97,87 %
27.01.2020 07:22 7,3 C 6,1 C 5,6 C 97 % 1009,7 hPa 0,0 l/m 0 min 0 min 0 W/m 16,1 km/h (3 Bft) 97,87 %
27.01.2020 07:24 7,3 C 6,1 C 5,6 C 97 % 1009,7 hPa 0,0 l/m 0 min 0 min 0 W/m 19,3 km/h (3 Bft) 95,74 %
27.01.2020 07:26 7,3 C 6,1 C 5,6 C 97 % 1009,7 hPa 0,0 l/m 0 min 0 min 0 W/m 16,1 km/h (3 Bft) 97,83 %
27.01.2020 07:28 7,3 C 6,1 C 5,6 C 97 % 1009,7 hPa 0,0 l/m 0 min 0 min 0 W/m 19,3 km/h (3 Bft) 97,87 %
27.01.2020 07:30 7,3 C 6,1 C 5,6 C 97 % 1009,7 hPa 0,0 l/m 0 min 0 min 0 W/m 19,3 km/h (3 Bft) 100,00 %
27.01.2020 07:32 7,3 C 6,1 C 5,6 C 97 % 1009,7 hPa 0,0 l/m 0 min 0 min 0 W/m 16,1 km/h (3 Bft) 93,62 %
27.01.2020 07:34 7,3 C 6,1 C 5,6 C 97 % 1009,6 hPa 0,0 l/m 0 min 0 min 0 W/m 19,3 km/h (3 Bft) 97,87 %
27.01.2020 07:36 7,3 C 6,1 C 5,6 C 97 % 1009,6 hPa 0,0 l/m 0 min 0 min 0 W/m 19,3 km/h (3 Bft) 100,00 %
27.01.2020 07:38 7,3 C 6,1 C 5,6 C 97 % 1009,6 hPa 0,0 l/m 0 min 0 min 0 W/m 16,1 km/h (3 Bft) 100,00 %
27.01.2020 07:40 7,3 C 6,1 C 5,6 C 97 % 1009,6 hPa 0,0 l/m 0 min 0 min 0 W/m 12,9 km/h (3 Bft) 97,87 %
27.01.2020 07:42 7,3 C 6,1 C 5,6 C 97 % 1009,6 hPa 0,0 l/m 0 min 0 min 0 W/m 16,1 km/h (3 Bft) 95,74 %
27.01.2020 07:44 7,3 C 6,1 C 5,6 C 97 % 1009,5 hPa 0,0 l/m 0 min 0 min 0 W/m 6,4 km/h (2 Bft) 97,87 %
27.01.2020 07:46 7,3 C 6,1 C 5,6 C 97 % 1009,6 hPa 0,0 l/m 0 min 0 min 0 W/m 22,5 km/h (4 Bft) 97,87 %
27.01.2020 07:48 7,3 C 6,1 C 5,6 C 97 % 1009,5 hPa 0,0 l/m 0 min 0 min 0 W/m 29,0 km/h (5 Bft) 97,87 %
27.01.2020 07:50 7,3 C 6,1 C 5,6 C 97 % 1009,5 hPa 0,0 l/m 0 min 0 min 0 W/m 19,3 km/h (3 Bft) 95,65 %
27.01.2020 07:52 7,3 C 6,1 C 5,6 C 97 % 1009,6 hPa 0,0 l/m 0 min 0 min 0 W/m 19,3 km/h (3 Bft) 97,87 %
27.01.2020 07:54 7,3 C 6,1 C 5,6 C 97 % 1009,5 hPa 0,0 l/m 0 min 0 min 0 W/m 19,3 km/h (3 Bft) 91,49 %
27.01.2020 07:56 7,3 C 6,1 C 5,6 C 97 % 1009,5 hPa 0,0 l/m 0 min 0 min 0 W/m 16,1 km/h (3 Bft) 97,87 %
27.01.2020 07:58 7,3 C 6,1 C 5,6 C 97 % 1009,6 hPa 0,0 l/m 0 min 0 min 0 W/m 22,5 km/h (4 Bft) 97,87 %
27.01.2020 08:00 7,3 C 6,1 C 5,6 C 97 % 1009,6 hPa 0,0 l/m 0 min 0 min 0 W/m 19,3 km/h (3 Bft) 95,65 %
27.01.2020 08:02 7,4 C 6,1 C 5,6 C 96 % 1009,6 hPa 0,0 l/m 0 min 0 min 0 W/m 22,5 km/h (4 Bft) 97,87 %
27.01.2020 08:04 7,4 C 6,1 C 5,6 C 97 % 1009,6 hPa 0,0 l/m 0 min 0 min 0 W/m 19,3 km/h (3 Bft) 97,87 %
27.01.2020 08:06 7,4 C 6,1 C 5,6 C 97 % 1009,5 hPa 0,0 l/m 0 min 0 min 0 W/m 19,3 km/h (3 Bft) 95,74 %
27.01.2020 08:08 7,4 C 6,1 C 5,6 C 97 % 1009,5 hPa 0,0 l/m 0 min 0 min 0 W/m 22,5 km/h (4 Bft) 97,87 %
27.01.2020 08:10 7,4 C 6,1 C 5,6 C 96 % 1009,6 hPa 0,0 l/m 0 min 0 min 0 W/m 16,1 km/h (3 Bft) 97,87 %
27.01.2020 08:12 7,4 C 6,7 C 5,6 C 96 % 1009,6 hPa 0,0 l/m 0 min 0 min 0 W/m 16,1 km/h (3 Bft) 97,83 %
27.01.2020 08:14 7,4 C 6,7 C 5,6 C 96 % 1009,6 hPa 0,0 l/m 0 min 0 min 0 W/m 16,1 km/h (3 Bft) 97,87 %
27.01.2020 08:16 7,4 C 6,7 C 5,6 C 96 % 1009,5 hPa 0,0 l/m 0 min 0 min 0 W/m 19,3 km/h (3 Bft) 97,87 %
27.01.2020 08:18 7,4 C 6,7 C 5,6 C 96 % 1009,5 hPa 0,0 l/m 0 min 0 min 0 W/m 12,9 km/h (3 Bft) 97,87 %
27.01.2020 08:20 7,4 C 6,7 C 5,6 C 96 % 1009,5 hPa 0,0 l/m 0 min 0 min 0 W/m 16,1 km/h (3 Bft) 97,87 %
27.01.2020 08:22 7,5 C 6,7 C 5,6 C 96 % 1009,4 hPa 0,0 l/m 0 min 0 min 0 W/m 22,5 km/h (4 Bft) 97,87 %
27.01.2020 08:24 7,5 C 6,7 C 5,6 C 96 % 1009,4 hPa 0,0 l/m 0 min 0 min 0 W/m 16,1 km/h (3 Bft) 97,83 %
27.01.2020 08:26 7,5 C 6,7 C 5,6 C 96 % 1009,3 hPa 0,0 l/m 0 min 0 min 0 W/m 19,3 km/h (3 Bft) 95,74 %
27.01.2020 08:28 7,5 C 6,7 C 5,6 C 96 % 1009,2 hPa 0,0 l/m 0 min 0 min 0 W/m 16,1 km/h (3 Bft) 97,87 %
27.01.2020 08:30 7,6 C 6,7 C 5,6 C 96 % 1009,2 hPa 0,0 l/m 0 min 0 min 0 W/m 25,7 km/h (4 Bft) 100,00 %
27.01.2020 08:32 7,6 C 6,7 C 5,6 C 96 % 1009,2 hPa 0,0 l/m 0 min 0 min 5 W/m 12,9 km/h (3 Bft) 100,00 %
27.01.2020 08:34 7,6 C 6,7 C 5,6 C 96 % 1009,3 hPa 0,0 l/m 0 min 0 min 5 W/m 25,7 km/h (4 Bft) 97,87 %
27.01.2020 08:36 7,6 C 6,7 C 5,6 C 96 % 1009,2 hPa 0,0 l/m 0 min 0 min 7 W/m 12,9 km/h (3 Bft) 97,83 %
27.01.2020 08:38 7,6 C 6,7 C 5,6 C 96 % 1009,2 hPa 0,0 l/m 0 min 0 min 7 W/m 16,1 km/h (3 Bft) 95,74 %
27.01.2020 08:40 7,6 C 6,7 C 5,6 C 96 % 1009,2 hPa 0,0 l/m 0 min 0 min 7 W/m 16,1 km/h (3 Bft) 100,00 %
27.01.2020 08:42 7,6 C 6,7 C 5,6 C 96 % 1009,2 hPa 0,0 l/m 0 min 0 min 7 W/m 22,5 km/h (4 Bft) 97,87 %
27.01.2020 08:44 7,6 C 6,7 C 5,6 C 96 % 1009,2 hPa 0,0 l/m 0 min 0 min 8 W/m 16,1 km/h (3 Bft) 97,87 %
27.01.2020 08:46 7,6 C 6,7 C 5,6 C 96 % 1009,2 hPa 0,0 l/m 0 min 0 min 9 W/m 16,1 km/h (3 Bft) 100,00 %
27.01.2020 08:48 7,6 C 6,7 C 5,6 C 96 % 1009,3 hPa 0,0 l/m 0 min 0 min 9 W/m 19,3 km/h (3 Bft) 100,00 %
27.01.2020 08:50 7,6 C 6,7 C 5,6 C 96 % 1009,2 hPa 0,0 l/m 0 min 0 min 11 W/m 16,1 km/h (3 Bft) 100,00 %
27.01.2020 08:52 7,6 C 6,7 C 5,6 C 96 % 1009,3 hPa 0,0 l/m 0 min 0 min 12 W/m 19,3 km/h (3 Bft) 100,00 %
27.01.2020 08:54 7,7 C 6,7 C 6,1 C 96 % 1009,2 hPa 0,0 l/m 0 min 0 min 14 W/m 16,1 km/h (3 Bft) 100,00 %
27.01.2020 08:56 7,7 C 6,7 C 5,6 C 96 % 1009,2 hPa 0,0 l/m 0 min 0 min 12 W/m 19,3 km/h (3 Bft) 97,87 %
27.01.2020 08:58 7,7 C 6,7 C 5,6 C 96 % 1009,2 hPa 0,0 l/m 0 min 0 min 11 W/m 16,1 km/h (3 Bft) 100,00 %
27.01.2020 09:00 7,7 C 6,1 C 5,6 C 95 % 1009,2 hPa 0,0 l/m 0 min 2 min 13 W/m 16,1 km/h (3 Bft) 100,00 %
27.01.2020 09:02 7,7 C 6,1 C 6,1 C 95 % 1009,1 hPa 0,0 l/m 0 min 2 min 17 W/m 16,1 km/h (3 Bft) 97,87 %
27.01.2020 09:04 7,7 C 6,1 C 6,1 C 95 % 1009,1 hPa 0,0 l/m 0 min 2 min 20 W/m 12,9 km/h (3 Bft) 100,00 %
27.01.2020 09:06 7,7 C 6,1 C 6,1 C 95 % 1009,2 hPa 0,0 l/m 0 min 2 min 23 W/m 12,9 km/h (3 Bft) 97,87 %
27.01.2020 09:08 7,7 C 6,7 C 6,1 C 95 % 1009,1 hPa 0,0 l/m 0 min 0 min 21 W/m 22,5 km/h (4 Bft) 100,00 %
27.01.2020 09:10 7,7 C 6,7 C 6,1 C 95 % 1009,1 hPa 0,0 l/m 0 min 0 min 18 W/m 12,9 km/h (3 Bft) 100,00 %
27.01.2020 09:12 7,7 C 6,7 C 6,1 C 95 % 1009,1 hPa 0,0 l/m 0 min 2 min 19 W/m 19,3 km/h (3 Bft) 100,00 %
27.01.2020 09:14 7,7 C 6,7 C 6,1 C 95 % 1009,1 hPa 0,0 l/m 0 min 2 min 17 W/m 16,1 km/h (3 Bft) 100,00 %
27.01.2020 09:16 7,7 C 6,7 C 6,1 C 95 % 1009,1 hPa 0,0 l/m 0 min 2 min 12 W/m 19,3 km/h (3 Bft) 100,00 %
27.01.2020 09:18 7,8 C 6,1 C 6,1 C 95 % 1009,1 hPa 0,0 l/m 0 min 2 min 11 W/m 19,3 km/h (3 Bft) 100,00 %
27.01.2020 09:20 7,8 C 6,1 C 6,1 C 95 % 1009,0 hPa 0,2 l/m 0 min 2 min 15 W/m 25,7 km/h (4 Bft) 100,00 %
27.01.2020 09:22 7,8 C 6,1 C 6,1 C 95 % 1009,0 hPa 0,0 l/m 0 min 2 min 21 W/m 16,1 km/h (3 Bft) 91,30 %
27.01.2020 09:24 7,8 C 6,7 C 6,1 C 96 % 1009,0 hPa 0,0 l/m 0 min 2 min 25 W/m 12,9 km/h (3 Bft) 95,74 %
27.01.2020 09:26 7,8 C 6,7 C 6,1 C 96 % 1009,0 hPa 0,0 l/m 0 min 2 min 25 W/m 6,4 km/h (2 Bft) 95,74 %
27.01.2020 09:28 7,8 C 6,7 C 6,1 C 96 % 1009,0 hPa 0,0 l/m 0 min 0 min 24 W/m 19,3 km/h (3 Bft) 95,74 %
27.01.2020 09:30 7,8 C 6,7 C 6,1 C 96 % 1009,0 hPa 0,0 l/m 0 min 0 min 27 W/m 16,1 km/h (3 Bft) 93,62 %
27.01.2020 09:32 7,8 C 6,7 C 6,1 C 96 % 1008,9 hPa 0,0 l/m 0 min 0 min 25 W/m 6,4 km/h (2 Bft) 95,74 %
27.01.2020 09:34 7,8 C 6,7 C 6,1 C 96 % 1009,0 hPa 0,0 l/m 0 min 0 min 19 W/m 12,9 km/h (3 Bft) 95,65 %
27.01.2020 09:36 7,8 C 6,7 C 6,1 C 96 % 1009,0 hPa 0,0 l/m 0 min 0 min 14 W/m 16,1 km/h (3 Bft) 93,62 %
27.01.2020 09:38 7,8 C 6,7 C 6,1 C 96 % 1009,0 hPa 0,0 l/m 0 min 0 min 16 W/m 12,9 km/h (3 Bft) 95,74 %
27.01.2020 09:40 7,8 C 6,7 C 6,1 C 96 % 1008,9 hPa 0,0 l/m 0 min 0 min 16 W/m 12,9 km/h (3 Bft) 95,74 %
27.01.2020 09:42 7,8 C 6,7 C 6,1 C 96 % 1008,9 hPa 0,0 l/m 0 min 0 min 16 W/m 12,9 km/h (3 Bft) 95,74 %
27.01.2020 09:44 7,8 C 6,7 C 6,1 C 96 % 1008,9 hPa 0,0 l/m 0 min 0 min 17 W/m 19,3 km/h (3 Bft) 95,65 %
27.01.2020 09:46 7,8 C 6,7 C 6,1 C 96 % 1008,9 hPa 0,0 l/m 0 min 0 min 19 W/m 12,9 km/h (3 Bft) 95,74 %
27.01.2020 09:48 7,8 C 6,7 C 6,1 C 96 % 1008,9 hPa 0,0 l/m 0 min 0 min 22 W/m 12,9 km/h (3 Bft) 95,74 %
27.01.2020 09:50 7,8 C 6,7 C 6,1 C 96 % 1008,8 hPa 0,0 l/m 0 min 0 min 22 W/m 6,4 km/h (2 Bft) 93,62 %
27.01.2020 09:52 7,8 C 6,7 C 6,1 C 96 % 1008,9 hPa 0,0 l/m 0 min 0 min 25 W/m 12,9 km/h (3 Bft) 95,74 %
27.01.2020 09:54 7,8 C 6,7 C 6,1 C 96 % 1008,8 hPa 0,0 l/m 0 min 2 min 25 W/m 12,9 km/h (3 Bft) 95,74 %
27.01.2020 09:56 7,8 C 6,7 C 6,1 C 96 % 1008,8 hPa 0,0 l/m 0 min 0 min 25 W/m 12,9 km/h (3 Bft) 93,48 %
27.01.2020 09:58 7,8 C 6,7 C 6,1 C 96 % 1008,8 hPa 0,0 l/m 0 min 0 min 29 W/m 12,9 km/h (3 Bft) 95,74 %
27.01.2020 10:00 7,8 C 6,7 C 6,1 C 96 % 1008,8 hPa 0,0 l/m 0 min 0 min 30 W/m 12,9 km/h (3 Bft) 95,74 %
27.01.2020 10:02 7,8 C 6,7 C 6,1 C 96 % 1008,8 hPa 0,0 l/m 0 min 0 min 23 W/m 6,4 km/h (2 Bft) 95,74 %
27.01.2020 10:04 7,8 C 6,7 C 6,1 C 96 % 1008,8 hPa 0,0 l/m 0 min 2 min 19 W/m 16,1 km/h (3 Bft) 95,74 %
27.01.2020 10:06 7,7 C 6,7 C 6,1 C 96 % 1008,8 hPa 0,0 l/m 0 min 2 min 19 W/m 16,1 km/h (3 Bft) 95,74 %
27.01.2020 10:08 7,8 C 6,7 C 6,1 C 96 % 1008,8 hPa 0,0 l/m 0 min 0 min 25 W/m 6,4 km/h (2 Bft) 97,83 %
27.01.2020 10:10 7,7 C 6,7 C 6,1 C 96 % 1008,7 hPa 0,0 l/m 0 min 0 min 31 W/m 6,4 km/h (2 Bft) 95,74 %
27.01.2020 10:12 7,7 C 6,7 C 6,1 C 96 % 1008,7 hPa 0,0 l/m 0 min 0 min 39 W/m 12,9 km/h (3 Bft) 95,74 %
27.01.2020 10:14 7,8 C 6,7 C 6,1 C 96 % 1008,6 hPa 0,0 l/m 0 min 0 min 41 W/m 12,9 km/h (3 Bft) 95,74 %
27.01.2020 10:16 7,7 C 6,7 C 6,1 C 96 % 1008,7 hPa 0,0 l/m 0 min 0 min 34 W/m 6,4 km/h (2 Bft) 97,87 %
27.01.2020 10:18 7,8 C 6,7 C 6,1 C 96 % 1008,6 hPa 0,0 l/m 0 min 0 min 30 W/m 6,4 km/h (2 Bft) 97,87 %
27.01.2020 10:20 7,8 C 6,7 C 6,1 C 97 % 1008,7 hPa 0,0 l/m 0 min 0 min 25 W/m 3,2 km/h (1 Bft) 97,83 %
27.01.2020 10:22 7,8 C 6,7 C 6,1 C 97 % 1008,6 hPa 0,0 l/m 0 min 0 min 28 W/m 3,2 km/h (1 Bft) 97,87 %
27.01.2020 10:24 7,8 C 6,7 C 6,1 C 97 % 1008,6 hPa 0,0 l/m 0 min 0 min 32 W/m 6,4 km/h (2 Bft) 100,00 %
27.01.2020 10:26 7,8 C 6,7 C 6,1 C 97 % 1008,6 hPa 0,0 l/m 0 min 0 min 38 W/m 6,4 km/h (2 Bft) 95,74 %
27.01.2020 10:28 7,8 C 6,7 C 6,1 C 97 % 1008,6 hPa 0,0 l/m 0 min 0 min 33 W/m 0,0 km/h (0 Bft) 95,74 %
27.01.2020 10:30 7,8 C 6,7 C 6,1 C 97 % 1008,5 hPa 0,0 l/m 0 min 0 min 33 W/m 0,0 km/h (0 Bft) 97,87 %
27.01.2020 10:32 7,8 C 6,7 C 6,1 C 97 % 1008,5 hPa 0,0 l/m 0 min 0 min 43 W/m 12,9 km/h (3 Bft) 97,83 %
27.01.2020 10:34 7,8 C 6,7 C 6,1 C 97 % 1008,4 hPa 0,0 l/m 0 min 0 min 57 W/m 12,9 km/h (3 Bft) 95,74 %
27.01.2020 10:36 7,8 C 6,7 C 6,1 C 97 % 1008,4 hPa 0,0 l/m 0 min 0 min 64 W/m 12,9 km/h (3 Bft) 97,87 %
27.01.2020 10:38 7,8 C 6,7 C 6,7 C 97 % 1008,4 hPa 0,0 l/m 0 min 2 min 55 W/m 12,9 km/h (3 Bft) 97,87 %
27.01.2020 10:40 7,8 C 6,7 C 6,7 C 97 % 1008,4 hPa 0,0 l/m 0 min 2 min 56 W/m 12,9 km/h (3 Bft) 97,87 %
27.01.2020 10:42 7,8 C 6,7 C 6,7 C 97 % 1008,3 hPa 0,0 l/m 0 min 0 min 60 W/m 6,4 km/h (2 Bft) 97,87 %
27.01.2020 10:44 7,8 C 6,7 C 6,7 C 97 % 1008,4 hPa 0,0 l/m 0 min 2 min 63 W/m 6,4 km/h (2 Bft) 95,65 %
27.01.2020 10:46 7,8 C 6,7 C 6,7 C 97 % 1008,3 hPa 0,0 l/m 0 min 2 min 62 W/m 6,4 km/h (2 Bft) 95,74 %
27.01.2020 10:48 7,8 C 6,7 C 6,7 C 97 % 1008,3 hPa 0,0 l/m 0 min 2 min 56 W/m 16,1 km/h (3 Bft) 97,87 %
27.01.2020 10:50 7,8 C 6,7 C 6,7 C 97 % 1008,2 hPa 0,0 l/m 0 min 2 min 48 W/m 12,9 km/h (3 Bft) 97,87 %
27.01.2020 10:52 7,8 C 6,7 C 6,7 C 97 % 1008,2 hPa 0,0 l/m 0 min 0 min 52 W/m 16,1 km/h (3 Bft) 97,87 %
27.01.2020 10:54 7,8 C 7,2 C 6,7 C 97 % 1008,2 hPa 0,0 l/m 0 min 0 min 63 W/m 12,9 km/h (3 Bft) 97,83 %
27.01.2020 10:56 7,9 C 7,2 C 6,7 C 97 % 1008,2 hPa 0,0 l/m 0 min 0 min 86 W/m 6,4 km/h (2 Bft) 97,87 %
27.01.2020 10:58 7,9 C 7,2 C 6,7 C 97 % 1008,2 hPa 0,0 l/m 0 min 0 min 68 W/m 9,7 km/h (2 Bft) 95,74 %
27.01.2020 11:00 7,9 C 7,2 C 6,7 C 97 % 1008,2 hPa 0,0 l/m 0 min 0 min 54 W/m 12,9 km/h (3 Bft) 97,87 %
27.01.2020 11:02 7,9 C 7,2 C 6,7 C 97 % 1008,2 hPa 0,0 l/m 0 min 0 min 55 W/m 16,1 km/h (3 Bft) 95,74 %
27.01.2020 11:04 7,9 C 7,2 C 6,7 C 97 % 1008,2 hPa 0,0 l/m 0 min 0 min 67 W/m 16,1 km/h (3 Bft) 97,87 %
27.01.2020 11:06 8,0 C 7,2 C 6,7 C 97 % 1008,3 hPa 0,0 l/m 0 min 0 min 57 W/m 6,4 km/h (2 Bft) 95,65 %
27.01.2020 11:08 8,0 C 7,2 C 6,7 C 97 % 1008,3 hPa 0,0 l/m 0 min 0 min 49 W/m 3,2 km/h (1 Bft) 54,55 %
27.01.2020 11:10 8,1 C 7,2 C 6,7 C 97 % 1008,3 hPa 0,0 l/m 0 min 0 min 44 W/m 0,0 km/h (0 Bft) 95,74 %
27.01.2020 11:12 8,1 C 7,2 C 6,7 C 97 % 1008,2 hPa 0,0 l/m 0 min 0 min 49 W/m 12,9 km/h (3 Bft) 97,87 %
27.01.2020 11:14 8,1 C 7,2 C 6,7 C 97 % 1008,2 hPa 0,0 l/m 0 min 0 min 43 W/m 22,5 km/h (4 Bft) 97,87 %
27.01.2020 11:16 8,1 C 7,2 C 6,7 C 97 % 1008,2 hPa 0,0 l/m 0 min 0 min 34 W/m 22,5 km/h (4 Bft) 100,00 %
27.01.2020 11:18 8,1 C 7,2 C 6,7 C 97 % 1008,2 hPa 0,0 l/m 0 min 0 min 34 W/m 16,1 km/h (3 Bft) 100,00 %
27.01.2020 11:20 8,1 C 7,2 C 6,7 C 97 % 1008,1 hPa 0,0 l/m 0 min 0 min 29 W/m 19,3 km/h (3 Bft) 100,00 %
27.01.2020 11:22 8,2 C 7,2 C 6,7 C 97 % 1008,1 hPa 0,0 l/m 0 min 0 min 34 W/m 16,1 km/h (3 Bft) 100,00 %
27.01.2020 11:24 8,2 C 7,2 C 6,7 C 97 % 1008,1 hPa 0,0 l/m 0 min 0 min 44 W/m 19,3 km/h (3 Bft) 100,00 %
27.01.2020 11:26 8,2 C 7,2 C 6,7 C 97 % 1008,0 hPa 0,0 l/m 0 min 0 min 51 W/m 16,1 km/h (3 Bft) 100,00 %
27.01.2020 11:28 8,2 C 7,8 C 6,7 C 97 % 1008,1 hPa 0,0 l/m 0 min 2 min 71 W/m 12,9 km/h (3 Bft) 100,00 %
27.01.2020 11:30 8,3 C 7,8 C 7,2 C 97 % 1008,0 hPa 0,0 l/m 0 min 0 min 62 W/m 6,4 km/h (2 Bft) 100,00 %
27.01.2020 11:32 8,3 C 7,8 C 6,7 C 97 % 1008,1 hPa 0,0 l/m 0 min 0 min 50 W/m 16,1 km/h (3 Bft) 100,00 %
27.01.2020 11:34 8,3 C 7,8 C 7,2 C 96 % 1008,1 hPa 0,0 l/m 0 min 0 min 53 W/m 16,1 km/h (3 Bft) 100,00 %
27.01.2020 11:36 8,3 C 7,8 C 7,2 C 96 % 1008,0 hPa 0,0 l/m 0 min 0 min 46 W/m 16,1 km/h (3 Bft) 100,00 %
27.01.2020 11:38 8,4 C 7,8 C 6,7 C 96 % 1007,9 hPa 0,0 l/m 0 min 0 min 41 W/m 16,1 km/h (3 Bft) 100,00 %
27.01.2020 11:40 8,4 C 7,8 C 6,7 C 96 % 1008,0 hPa 0,0 l/m 0 min 0 min 49 W/m 16,1 km/h (3 Bft) 100,00 %
27.01.2020 11:42 8,4 C 7,8 C 6,7 C 96 % 1007,9 hPa 0,0 l/m 0 min 0 min 47 W/m 19,3 km/h (3 Bft) 97,83 %
27.01.2020 11:44 8,4 C 7,8 C 7,2 C 96 % 1007,9 hPa 0,0 l/m 0 min 0 min 43 W/m 19,3 km/h (3 Bft) 95,74 %
27.01.2020 11:46 8,5 C 7,8 C 7,2 C 96 % 1007,8 hPa 0,0 l/m 0 min 0 min 38 W/m 16,1 km/h (3 Bft) 100,00 %
27.01.2020 11:48 8,5 C 7,8 C 6,7 C 96 % 1007,8 hPa 0,0 l/m 0 min 0 min 38 W/m 12,9 km/h (3 Bft) 100,00 %
27.01.2020 11:50 8,5 C 7,8 C 6,7 C 96 % 1007,8 hPa 0,0 l/m 0 min 0 min 34 W/m 6,4 km/h (2 Bft) 100,00 %
27.01.2020 11:52 8,6 C 7,8 C 6,7 C 96 % 1007,7 hPa 0,0 l/m 0 min 0 min 33 W/m 19,3 km/h (3 Bft) 97,87 %
27.01.2020 11:54 8,6 C 7,8 C 6,7 C 96 % 1007,8 hPa 0,0 l/m 0 min 0 min 28 W/m 19,3 km/h (3 Bft) 100,00 %
27.01.2020 11:56 8,6 C 7,8 C 6,7 C 96 % 1007,8 hPa 0,0 l/m 0 min 0 min 26 W/m 16,1 km/h (3 Bft) 100,00 %
27.01.2020 11:58 8,6 C 7,8 C 6,7 C 96 % 1007,7 hPa 0,0 l/m 0 min 0 min 27 W/m 25,7 km/h (4 Bft) 95,74 %
27.01.2020 12:00 8,6 C 7,8 C 6,7 C 96 % 1007,6 hPa 0,0 l/m 0 min 0 min 29 W/m 16,1 km/h (3 Bft) 97,87 %
27.01.2020 12:02 8,6 C 7,2 C 6,7 C 96 % 1007,6 hPa 0,0 l/m 0 min 2 min 28 W/m 12,9 km/h (3 Bft) 100,00 %
27.01.2020 12:04 8,7 C 7,2 C 6,7 C 95 % 1007,6 hPa 0,2 l/m 0 min 2 min 29 W/m 22,5 km/h (4 Bft) 97,87 %
27.01.2020 12:06 8,7 C 7,2 C 6,7 C 95 % 1007,5 hPa 0,0 l/m 0 min 2 min 33 W/m 19,3 km/h (3 Bft) 97,87 %
27.01.2020 12:08 8,7 C 7,2 C 6,7 C 95 % 1007,4 hPa 0,0 l/m 0 min 2 min 32 W/m 19,3 km/h (3 Bft) 97,87 %
27.01.2020 12:10 8,7 C 7,2 C 6,7 C 95 % 1007,5 hPa 0,0 l/m 0 min 2 min 31 W/m 22,5 km/h (4 Bft) 100,00 %
27.01.2020 12:12 8,7 C 7,2 C 6,7 C 95 % 1007,4 hPa 0,0 l/m 0 min 2 min 28 W/m 19,3 km/h (3 Bft) 95,65 %
27.01.2020 12:14 8,7 C 7,2 C 6,7 C 95 % 1007,4 hPa 0,0 l/m 0 min 2 min 30 W/m 16,1 km/h (3 Bft) 97,87 %
27.01.2020 12:16 8,7 C 7,2 C 6,7 C 95 % 1007,4 hPa 0,0 l/m 0 min 2 min 33 W/m 16,1 km/h (3 Bft) 97,87 %
27.01.2020 12:18 8,7 C 7,2 C 6,7 C 95 % 1007,3 hPa 0,0 l/m 0 min 2 min 32 W/m 16,1 km/h (3 Bft) 97,87 %
27.01.2020 12:20 8,7 C 7,2 C 6,7 C 95 % 1007,3 hPa 0,0 l/m 0 min 0 min 32 W/m 19,3 km/h (3 Bft) 97,87 %
27.01.2020 12:22 8,7 C 7,2 C 6,7 C 95 % 1007,3 hPa 0,0 l/m 0 min 0 min 32 W/m 12,9 km/h (3 Bft) 97,83 %
27.01.2020 12:24 8,7 C 7,2 C 6,7 C 95 % 1007,3 hPa 0,0 l/m 0 min 0 min 34 W/m 16,1 km/h (3 Bft) 97,87 %
27.01.2020 12:26 8,7 C 7,2 C 6,7 C 95 % 1007,2 hPa 0,0 l/m 0 min 0 min 37 W/m 16,1 km/h (3 Bft) 95,74 %
27.01.2020 12:28 8,7 C 7,2 C 6,7 C 95 % 1007,2 hPa 0,0 l/m 0 min 0 min 44 W/m 16,1 km/h (3 Bft) 97,87 %
27.01.2020 12:30 8,7 C 7,2 C 6,7 C 95 % 1007,2 hPa 0,0 l/m 0 min 0 min 61 W/m 12,9 km/h (3 Bft) 95,74 %
27.01.2020 12:32 8,7 C 7,2 C 6,7 C 95 % 1007,1 hPa 0,0 l/m 0 min 0 min 54 W/m 6,4 km/h (2 Bft) 97,87 %
27.01.2020 12:34 8,7 C 7,2 C 6,7 C 95 % 1007,1 hPa 0,0 l/m 0 min 0 min 54 W/m 12,9 km/h (3 Bft) 97,83 %
27.01.2020 12:36 8,7 C 7,2 C 6,7 C 95 % 1007,1 hPa 0,0 l/m 0 min 0 min 43 W/m 12,9 km/h (3 Bft) 100,00 %
27.01.2020 12:38 8,7 C 7,2 C 6,7 C 95 % 1007,1 hPa 0,0 l/m 0 min 0 min 42 W/m 16,1 km/h (3 Bft) 97,87 %
27.01.2020 12:40 8,7 C 7,2 C 6,7 C 95 % 1007,0 hPa 0,2 l/m 0 min 0 min 43 W/m 12,9 km/h (3 Bft) 95,74 %
27.01.2020 12:42 8,7 C 7,2 C 6,7 C 95 % 1007,0 hPa 0,0 l/m 0 min 0 min 48 W/m 22,5 km/h (4 Bft) 97,87 %
27.01.2020 12:44 8,7 C 7,2 C 6,7 C 95 % 1006,9 hPa 0,0 l/m 0 min 0 min 52 W/m 25,7 km/h (4 Bft) 97,87 %
27.01.2020 12:46 8,7 C 7,2 C 6,7 C 95 % 1006,9 hPa 0,0 l/m 0 min 0 min 52 W/m 19,3 km/h (3 Bft) 97,83 %
27.01.2020 12:48 8,7 C 7,2 C 6,7 C 95 % 1006,9 hPa 0,0 l/m 0 min 0 min 50 W/m 22,5 km/h (4 Bft) 97,87 %
27.01.2020 12:50 8,7 C 7,2 C 6,7 C 95 % 1006,8 hPa 0,0 l/m 0 min 0 min 40 W/m 19,3 km/h (3 Bft) 97,87 %
27.01.2020 12:52 8,7 C 7,2 C 6,7 C 95 % 1006,8 hPa 0,0 l/m 0 min 0 min 42 W/m 19,3 km/h (3 Bft) 97,87 %
27.01.2020 12:54 8,7 C 7,2 C 6,7 C 95 % 1006,7 hPa 0,0 l/m 0 min 0 min 52 W/m 19,3 km/h (3 Bft) 97,87 %
27.01.2020 12:56 8,7 C 7,2 C 6,7 C 96 % 1006,7 hPa 0,0 l/m 0 min 0 min 54 W/m 19,3 km/h (3 Bft) 95,74 %
27.01.2020 12:58 8,7 C 7,2 C 7,2 C 96 % 1006,7 hPa 0,0 l/m 0 min 0 min 65 W/m 16,1 km/h (3 Bft) 93,48 %
27.01.2020 13:00 8,7 C 7,2 C 7,2 C 96 % 1006,7 hPa 0,0 l/m 0 min 0 min 57 W/m 12,9 km/h (3 Bft) 95,74 %
27.01.2020 13:02 8,7 C 7,2 C 6,7 C 96 % 1006,7 hPa 0,0 l/m 0 min 2 min 44 W/m 16,1 km/h (3 Bft) 95,74 %
27.01.2020 13:04 8,7 C 7,2 C 6,7 C 96 % 1006,7 hPa 0,0 l/m 0 min 2 min 44 W/m 22,5 km/h (4 Bft) 97,87 %
27.01.2020 13:06 8,7 C 7,2 C 6,7 C 96 % 1006,7 hPa 0,0 l/m 0 min 2 min 53 W/m 16,1 km/h (3 Bft) 93,62 %
27.01.2020 13:08 8,7 C 7,2 C 6,7 C 96 % 1006,7 hPa 0,0 l/m 0 min 2 min 52 W/m 16,1 km/h (3 Bft) 97,87 %
27.01.2020 13:10 8,7 C 7,2 C 6,7 C 96 % 1006,6 hPa 0,0 l/m 0 min 2 min 45 W/m 19,3 km/h (3 Bft) 97,83 %
27.01.2020 13:12 8,7 C 7,2 C 6,7 C 96 % 1006,6 hPa 0,0 l/m 0 min 2 min 28 W/m 19,3 km/h (3 Bft) 95,74 %
27.01.2020 13:14 8,7 C 7,2 C 6,7 C 96 % 1006,6 hPa 0,0 l/m 0 min 2 min 38 W/m 12,9 km/h (3 Bft) 95,74 %
27.01.2020 13:16 8,7 C 7,2 C 6,7 C 96 % 1006,5 hPa 0,0 l/m 0 min 2 min 39 W/m 16,1 km/h (3 Bft) 95,74 %
27.01.2020 13:18 8,7 C 7,2 C 6,7 C 96 % 1006,5 hPa 0,2 l/m 0 min 2 min 26 W/m 12,9 km/h (3 Bft) 95,74 %
27.01.2020 13:20 8,7 C 7,2 C 6,7 C 96 % 1006,5 hPa 0,0 l/m 0 min 2 min 19 W/m 12,9 km/h (3 Bft) 95,74 %
27.01.2020 13:22 8,7 C 7,2 C 6,7 C 96 % 1006,5 hPa 0,0 l/m 0 min 0 min 20 W/m 22,5 km/h (4 Bft) 95,65 %
27.01.2020 13:24 8,7 C 7,2 C 6,7 C 96 % 1006,4 hPa 0,0 l/m 0 min 0 min 30 W/m 16,1 km/h (3 Bft) 95,74 %
27.01.2020 13:26 8,6 C 7,2 C 6,7 C 96 % 1006,5 hPa 0,0 l/m 0 min 0 min 37 W/m 6,4 km/h (2 Bft) 95,74 %
27.01.2020 13:28 8,6 C 7,2 C 6,7 C 96 % 1006,4 hPa 0,0 l/m 0 min 0 min 34 W/m 16,1 km/h (3 Bft) 95,74 %
27.01.2020 13:30 8,6 C 7,2 C 6,7 C 96 % 1006,4 hPa 0,0 l/m 0 min 0 min 30 W/m 16,1 km/h (3 Bft) 95,74 %
27.01.2020 13:32 8,6 C 7,2 C 6,7 C 96 % 1006,4 hPa 0,0 l/m 0 min 0 min 31 W/m 19,3 km/h (3 Bft) 95,65 %
27.01.2020 13:34 8,6 C 7,2 C 6,7 C 96 % 1006,4 hPa 0,0 l/m 0 min 2 min 32 W/m 16,1 km/h (3 Bft) 95,74 %
27.01.2020 13:36 8,6 C 7,2 C 6,7 C 96 % 1006,4 hPa 0,0 l/m 0 min 2 min 38 W/m 16,1 km/h (3 Bft) 93,62 %
27.01.2020 13:38 8,6 C 7,2 C 6,7 C 96 % 1006,3 hPa 0,0 l/m 0 min 2 min 38 W/m 19,3 km/h (3 Bft) 95,74 %
27.01.2020 13:40 8,6 C 7,2 C 6,7 C 96 % 1006,3 hPa 0,0 l/m 0 min 2 min 35 W/m 19,3 km/h (3 Bft) 97,87 %
27.01.2020 13:42 8,6 C 7,2 C 6,7 C 96 % 1006,3 hPa 0,0 l/m 0 min 0 min 42 W/m 19,3 km/h (3 Bft) 97,87 %
27.01.2020 13:44 8,6 C 7,2 C 6,7 C 96 % 1006,3 hPa 0,2 l/m 0 min 0 min 43 W/m 29,0 km/h (5 Bft) 97,83 %
27.01.2020 13:46 8,6 C 7,2 C 6,7 C 96 % 1006,2 hPa 0,0 l/m 0 min 0 min 59 W/m 22,5 km/h (4 Bft) 97,87 %
27.01.2020 13:48 8,6 C 7,2 C 6,7 C 96 % 1006,2 hPa 0,0 l/m 0 min 0 min 64 W/m 16,1 km/h (3 Bft) 95,74 %
27.01.2020 13:50 8,6 C 7,2 C 6,7 C 96 % 1006,2 hPa 0,0 l/m 0 min 0 min 67 W/m 25,7 km/h (4 Bft) 95,74 %
27.01.2020 13:52 8,6 C 7,2 C 7,2 C 97 % 1006,2 hPa 0,0 l/m 0 min 0 min 66 W/m 16,1 km/h (3 Bft) 97,87 %
27.01.2020 13:54 8,6 C 7,2 C 7,2 C 97 % 1006,1 hPa 0,0 l/m 0 min 0 min 63 W/m 19,3 km/h (3 Bft) 95,74 %
27.01.2020 13:56 8,6 C 7,2 C 7,2 C 97 % 1006,1 hPa 0,0 l/m 0 min 0 min 61 W/m 16,1 km/h (3 Bft) 97,83 %
27.01.2020 13:58 8,6 C 7,2 C 7,2 C 97 % 1006,1 hPa 0,0 l/m 0 min 0 min 51 W/m 16,1 km/h (3 Bft) 97,87 %
27.01.2020 14:00 8,6 C 7,2 C 7,2 C 97 % 1006,1 hPa 0,0 l/m 0 min 0 min 57 W/m 12,9 km/h (3 Bft) 100,00 %
27.01.2020 14:02 8,6 C 7,8 C 7,2 C 97 % 1006,0 hPa 0,0 l/m 0 min 0 min 65 W/m 19,3 km/h (3 Bft) 97,87 %
27.01.2020 14:04 8,6 C 7,8 C 7,2 C 97 % 1006,0 hPa 0,0 l/m 0 min 0 min 70 W/m 16,1 km/h (3 Bft) 100,00 %
27.01.2020 14:06 8,6 C 7,8 C 7,2 C 97 % 1005,9 hPa 0,0 l/m 0 min 0 min 76 W/m 16,1 km/h (3 Bft) 100,00 %
27.01.2020 14:08 8,6 C 7,8 C 7,2 C 97 % 1005,9 hPa 0,0 l/m 0 min 0 min 80 W/m 12,9 km/h (3 Bft) 97,83 %
27.01.2020 14:10 8,6 C 7,8 C 7,2 C 97 % 1005,9 hPa 0,0 l/m 0 min 0 min 76 W/m 12,9 km/h (3 Bft) 97,87 %
27.01.2020 14:12 8,6 C 7,8 C 7,2 C 97 % 1005,8 hPa 0,0 l/m 0 min 0 min 73 W/m 12,9 km/h (3 Bft) 100,00 %
27.01.2020 14:14 8,6 C 7,8 C 7,2 C 97 % 1005,8 hPa 0,0 l/m 0 min 0 min 73 W/m 12,9 km/h (3 Bft) 97,87 %
27.01.2020 14:16 8,6 C 7,8 C 7,2 C 97 % 1005,8 hPa 0,0 l/m 0 min 0 min 69 W/m 12,9 km/h (3 Bft) 100,00 %
27.01.2020 14:18 8,6 C 7,8 C 7,2 C 97 % 1005,8 hPa 0,0 l/m 0 min 0 min 70 W/m 12,9 km/h (3 Bft) 100,00 %
27.01.2020 14:20 8,6 C 7,8 C 7,2 C 97 % 1005,7 hPa 0,0 l/m 0 min 0 min 60 W/m 12,9 km/h (3 Bft) 100,00 %
27.01.2020 14:22 8,6 C 7,8 C 7,2 C 97 % 1005,7 hPa 0,0 l/m 0 min 0 min 52 W/m 16,1 km/h (3 Bft) 100,00 %
27.01.2020 14:24 8,6 C 7,8 C 7,2 C 97 % 1005,7 hPa 0,0 l/m 0 min 0 min 49 W/m 12,9 km/h (3 Bft) 100,00 %
27.01.2020 14:26 8,6 C 7,8 C 7,2 C 97 % 1005,6 hPa 0,0 l/m 0 min 0 min 44 W/m 12,9 km/h (3 Bft) 100,00 %
27.01.2020 14:28 8,6 C 7,8 C 7,2 C 97 % 1005,6 hPa 0,0 l/m 0 min 0 min 44 W/m 16,1 km/h (3 Bft) 100,00 %
27.01.2020 14:30 8,6 C 7,8 C 7,2 C 97 % 1005,5 hPa 0,0 l/m 0 min 0 min 42 W/m 6,4 km/h (2 Bft) 100,00 %
27.01.2020 14:32 8,6 C 7,8 C 7,2 C 97 % 1005,5 hPa 0,0 l/m 0 min 0 min 39 W/m 6,4 km/h (2 Bft) 100,00 %
27.01.2020 14:34 8,6 C 7,8 C 7,2 C 97 % 1005,4 hPa 0,0 l/m 0 min 0 min 44 W/m 12,9 km/h (3 Bft) 97,87 %
27.01.2020 14:36 8,6 C 7,8 C 7,2 C 97 % 1005,4 hPa 0,0 l/m 0 min 0 min 46 W/m 6,4 km/h (2 Bft) 97,87 %
27.01.2020 14:38 8,6 C 7,8 C 7,2 C 97 % 1005,4 hPa 0,0 l/m 0 min 0 min 41 W/m 12,9 km/h (3 Bft) 95,74 %
27.01.2020 14:40 8,6 C 7,8 C 7,2 C 97 % 1005,4 hPa 0,0 l/m 0 min 0 min 40 W/m 12,9 km/h (3 Bft) 97,87 %
27.01.2020 14:42 8,6 C 7,8 C 7,2 C 97 % 1005,4 hPa 0,0 l/m 0 min 0 min 46 W/m 12,9 km/h (3 Bft) 97,83 %
27.01.2020 14:44 8,6 C 7,8 C 7,2 C 97 % 1005,3 hPa 0,0 l/m 0 min 0 min 52 W/m 16,1 km/h (3 Bft) 97,87 %
27.01.2020 14:46 8,6 C 7,8 C 7,2 C 97 % 1005,3 hPa 0,0 l/m 0 min 0 min 44 W/m 12,9 km/h (3 Bft) 97,87 %
27.01.2020 14:48 8,6 C 7,8 C 7,2 C 97 % 1005,3 hPa 0,0 l/m 0 min 0 min 48 W/m 19,3 km/h (3 Bft) 95,74 %
27.01.2020 14:50 8,6 C 7,8 C 7,2 C 97 % 1005,3 hPa 0,0 l/m 0 min 0 min 53 W/m 12,9 km/h (3 Bft) 97,87 %
27.01.2020 14:52 8,6 C 7,8 C 7,2 C 97 % 1005,3 hPa 0,0 l/m 0 min 0 min 51 W/m 12,9 km/h (3 Bft) 97,87 %
27.01.2020 14:54 8,6 C 7,8 C 7,2 C 97 % 1005,3 hPa 0,0 l/m 0 min 0 min 52 W/m 12,9 km/h (3 Bft) 97,83 %
27.01.2020 14:56 8,6 C 7,8 C 7,2 C 97 % 1005,2 hPa 0,0 l/m 0 min 0 min 47 W/m 16,1 km/h (3 Bft) 97,87 %
27.01.2020 14:58 8,6 C 7,8 C 7,2 C 97 % 1005,2 hPa 0,0 l/m 0 min 0 min 44 W/m 16,1 km/h (3 Bft) 97,87 %
27.01.2020 15:00 8,6 C 7,8 C 7,2 C 97 % 1005,3 hPa 0,0 l/m 0 min 0 min 41 W/m 16,1 km/h (3 Bft) 97,87 %
27.01.2020 15:02 8,6 C 7,8 C 7,2 C 97 % 1005,2 hPa 0,0 l/m 0 min 0 min 44 W/m 22,5 km/h (4 Bft) 97,87 %
27.01.2020 15:04 8,6 C 7,8 C 7,2 C 97 % 1005,2 hPa 0,0 l/m 0 min 0 min 49 W/m 12,9 km/h (3 Bft) 95,74 %
27.01.2020 15:06 8,6 C 7,8 C 7,2 C 97 % 1005,1 hPa 0,0 l/m 0 min 0 min 49 W/m 16,1 km/h (3 Bft) 95,65 %
27.01.2020 15:08 8,6 C 7,8 C 7,2 C 97 % 1005,1 hPa 0,0 l/m 0 min 0 min 46 W/m 6,4 km/h (2 Bft) 97,87 %
27.01.2020 15:10 8,6 C 7,8 C 7,2 C 97 % 1005,1 hPa 0,0 l/m 0 min 0 min 40 W/m 12,9 km/h (3 Bft) 93,62 %
27.01.2020 15:12 8,6 C 7,8 C 7,2 C 97 % 1005,1 hPa 0,0 l/m 0 min 0 min 36 W/m 12,9 km/h (3 Bft) 97,87 %
27.01.2020 15:14 8,6 C 7,8 C 7,2 C 97 % 1005,1 hPa 0,0 l/m 0 min 0 min 33 W/m 19,3 km/h (3 Bft) 95,74 %
27.01.2020 15:16 8,6 C 7,8 C 7,2 C 97 % 1005,0 hPa 0,0 l/m 0 min 0 min 32 W/m 12,9 km/h (3 Bft) 97,87 %
27.01.2020 15:18 8,6 C 7,8 C 7,2 C 96 % 1005,0 hPa 0,0 l/m 0 min 0 min 31 W/m 22,5 km/h (4 Bft) 100,00 %
27.01.2020 15:20 8,6 C 7,8 C 7,2 C 96 % 1005,0 hPa 0,0 l/m 0 min 0 min 27 W/m 12,9 km/h (3 Bft) 97,87 %
27.01.2020 15:22 8,6 C 7,2 C 6,7 C 96 % 1005,0 hPa 0,0 l/m 0 min 0 min 25 W/m 22,5 km/h (4 Bft) 97,87 %
27.01.2020 15:24 8,6 C 7,2 C 6,7 C 96 % 1005,0 hPa 0,0 l/m 0 min 0 min 24 W/m 25,7 km/h (4 Bft) 97,87 %
27.01.2020 15:26 8,6 C 7,2 C 6,7 C 96 % 1004,9 hPa 0,0 l/m 0 min 0 min 27 W/m 25,7 km/h (4 Bft) 97,87 %
27.01.2020 15:28 8,6 C 7,2 C 6,7 C 96 % 1004,9 hPa 0,0 l/m 0 min 0 min 30 W/m 19,3 km/h (3 Bft) 97,87 %
27.01.2020 15:30 8,6 C 7,2 C 6,7 C 95 % 1004,9 hPa 0,0 l/m 0 min 0 min 29 W/m 22,5 km/h (4 Bft) 100,00 %
27.01.2020 15:32 8,6 C 7,2 C 6,7 C 95 % 1004,8 hPa 0,0 l/m 0 min 0 min 28 W/m 25,7 km/h (4 Bft) 100,00 %
27.01.2020 15:34 8,6 C 7,2 C 6,7 C 95 % 1004,8 hPa 0,0 l/m 0 min 0 min 28 W/m 25,7 km/h (4 Bft) 100,00 %
27.01.2020 15:36 8,6 C 7,2 C 6,7 C 95 % 1004,7 hPa 0,0 l/m 0 min 0 min 28 W/m 29,0 km/h (5 Bft) 97,87 %
27.01.2020 15:38 8,6 C 7,2 C 6,7 C 95 % 1004,6 hPa 0,0 l/m 0 min 0 min 27 W/m 19,3 km/h (3 Bft) 100,00 %
27.01.2020 15:40 8,5 C 7,2 C 6,7 C 94 % 1004,7 hPa 0,0 l/m 0 min 0 min 26 W/m 19,3 km/h (3 Bft) 100,00 %
27.01.2020 15:42 8,5 C 7,2 C 6,7 C 94 % 1004,7 hPa 0,0 l/m 0 min 0 min 28 W/m 25,7 km/h (4 Bft) 97,87 %
27.01.2020 15:44 8,5 C 7,2 C 6,7 C 94 % 1004,7 hPa 0,0 l/m 0 min 0 min 32 W/m 32,2 km/h (5 Bft) 97,87 %
27.01.2020 15:46 8,5 C 7,2 C 6,7 C 93 % 1004,7 hPa 0,0 l/m 0 min 0 min 31 W/m 25,7 km/h (4 Bft) 100,00 %
27.01.2020 15:48 8,5 C 7,2 C 6,7 C 93 % 1004,7 hPa 0,0 l/m 0 min 0 min 28 W/m 19,3 km/h (3 Bft) 100,00 %
27.01.2020 15:50 8,5 C 7,2 C 6,7 C 93 % 1004,7 hPa 0,0 l/m 0 min 0 min 26 W/m 22,5 km/h (4 Bft) 100,00 %
27.01.2020 15:52 8,5 C 7,2 C 6,7 C 93 % 1004,7 hPa 0,0 l/m 0 min 0 min 26 W/m 19,3 km/h (3 Bft) 97,83 %
27.01.2020 15:54 8,4 C 7,2 C 6,7 C 93 % 1004,7 hPa 0,0 l/m 0 min 0 min 26 W/m 29,0 km/h (5 Bft) 100,00 %
27.01.2020 15:56 8,4 C 7,2 C 6,7 C 92 % 1004,7 hPa 0,0 l/m 0 min 0 min 25 W/m 16,1 km/h (3 Bft) 100,00 %
27.01.2020 15:58 8,4 C 7,2 C 6,7 C 92 % 1004,7 hPa 0,0 l/m 0 min 0 min 25 W/m 12,9 km/h (3 Bft) 97,87 %
27.01.2020 16:00 8,4 C 7,2 C 6,7 C 92 % 1004,7 hPa 0,0 l/m 0 min 0 min 23 W/m 19,3 km/h (3 Bft) 95,74 %
27.01.2020 16:02 8,4 C 7,2 C 6,7 C 92 % 1004,7 hPa 0,0 l/m 0 min 0 min 22 W/m 19,3 km/h (3 Bft) 97,87 %
27.01.2020 16:04 8,4 C 7,2 C 6,1 C 92 % 1004,8 hPa 0,0 l/m 0 min 0 min 19 W/m 16,1 km/h (3 Bft) 95,65 %
27.01.2020 16:06 8,4 C 7,8 C 6,1 C 92 % 1004,7 hPa 0,0 l/m 0 min 0 min 16 W/m 16,1 km/h (3 Bft) 93,62 %
27.01.2020 16:08 8,4 C 7,8 C 6,1 C 91 % 1004,7 hPa 0,0 l/m 0 min 0 min 14 W/m 19,3 km/h (3 Bft) 95,74 %
27.01.2020 16:10 8,4 C 7,8 C 6,1 C 91 % 1004,6 hPa 0,0 l/m 0 min 0 min 15 W/m 22,5 km/h (4 Bft) 95,74 %
27.01.2020 16:12 8,4 C 7,8 C 6,1 C 91 % 1004,6 hPa 0,0 l/m 0 min 0 min 16 W/m 12,9 km/h (3 Bft) 93,62 %
27.01.2020 16:14 8,4 C 7,8 C 6,1 C 91 % 1004,5 hPa 0,0 l/m 0 min 0 min 20 W/m 12,9 km/h (3 Bft) 95,74 %
27.01.2020 16:16 8,3 C 7,8 C 6,1 C 91 % 1004,6 hPa 0,0 l/m 0 min 0 min 21 W/m 16,1 km/h (3 Bft) 95,65 %
27.01.2020 16:18 8,3 C 7,8 C 6,1 C 91 % 1004,5 hPa 0,0 l/m 0 min 0 min 21 W/m 22,5 km/h (4 Bft) 95,74 %
27.01.2020 16:20 8,3 C 7,8 C 6,1 C 91 % 1004,4 hPa 0,0 l/m 0 min 0 min 20 W/m 19,3 km/h (3 Bft) 95,74 %
27.01.2020 16:22 8,3 C 7,2 C 6,1 C 91 % 1004,5 hPa 0,0 l/m 0 min 0 min 19 W/m 16,1 km/h (3 Bft) 91,49 %
27.01.2020 16:24 8,3 C 7,2 C 6,1 C 91 % 1004,4 hPa 0,0 l/m 0 min 0 min 18 W/m 16,1 km/h (3 Bft) 95,74 %
27.01.2020 16:26 8,3 C 7,2 C 6,1 C 91 % 1004,5 hPa 0,0 l/m 0 min 0 min 17 W/m 12,9 km/h (3 Bft) 95,65 %
27.01.2020 16:28 8,3 C 7,2 C 6,1 C 91 % 1004,4 hPa 0,0 l/m 0 min 0 min 16 W/m 19,3 km/h (3 Bft) 95,74 %
27.01.2020 16:30 8,2 C 7,2 C 6,1 C 91 % 1004,4 hPa 0,0 l/m 0 min 0 min 16 W/m 16,1 km/h (3 Bft) 95,74 %
27.01.2020 16:32 8,2 C 7,2 C 6,1 C 91 % 1004,4 hPa 0,0 l/m 0 min 0 min 16 W/m 12,9 km/h (3 Bft) 95,74 %
27.01.2020 16:34 8,2 C 7,2 C 6,1 C 91 % 1004,3 hPa 0,0 l/m 0 min 0 min 16 W/m 16,1 km/h (3 Bft) 93,62 %
27.01.2020 16:36 8,2 C 7,2 C 6,1 C 91 % 1004,4 hPa 0,0 l/m 0 min 0 min 16 W/m 16,1 km/h (3 Bft) 95,74 %
27.01.2020 16:38 8,2 C 7,2 C 6,1 C 91 % 1004,3 hPa 0,0 l/m 0 min 0 min 16 W/m 16,1 km/h (3 Bft) 95,65 %
27.01.2020 16:40 8,2 C 7,2 C 6,1 C 91 % 1004,3 hPa 0,0 l/m 0 min 0 min 18 W/m 16,1 km/h (3 Bft) 95,74 %
27.01.2020 16:42 8,2 C 7,2 C 6,1 C 91 % 1004,2 hPa 0,0 l/m 0 min 0 min 18 W/m 16,1 km/h (3 Bft) 95,74 %
27.01.2020 16:44 8,1 C 7,2 C 6,1 C 91 % 1004,2 hPa 0,0 l/m 0 min 0 min 18 W/m 25,7 km/h (4 Bft) 95,74 %
27.01.2020 16:46 8,1 C 7,2 C 6,1 C 91 % 1004,2 hPa 0,0 l/m 0 min 0 min 15 W/m 19,3 km/h (3 Bft) 95,74 %
27.01.2020 16:48 8,1 C 7,2 C 6,1 C 91 % 1004,1 hPa 0,0 l/m 0 min 0 min 12 W/m 19,3 km/h (3 Bft) 97,87 %
27.01.2020 16:50 8,1 C 7,2 C 6,1 C 91 % 1004,2 hPa 0,0 l/m 0 min 0 min 11 W/m 16,1 km/h (3 Bft) 97,83 %
27.01.2020 16:52 8,1 C 7,2 C 6,1 C 91 % 1004,1 hPa 0,0 l/m 0 min 0 min 9 W/m 19,3 km/h (3 Bft) 95,74 %
27.01.2020 16:54 8,1 C 7,2 C 6,1 C 91 % 1004,1 hPa 0,0 l/m 0 min 0 min 7 W/m 6,4 km/h (2 Bft) 97,87 %
27.01.2020 16:56 8,1 C 7,2 C 6,1 C 91 % 1004,0 hPa 0,0 l/m 0 min 0 min 5 W/m 12,9 km/h (3 Bft) 97,87 %
27.01.2020 16:58 8,0 C 7,2 C 6,1 C 91 % 1004,0 hPa 0,0 l/m 0 min 0 min 5 W/m 12,9 km/h (3 Bft) 100,00 %
27.01.2020 17:00 8,0 C 7,2 C 6,1 C 91 % 1004,0 hPa 0,0 l/m 0 min 0 min 0 W/m 12,9 km/h (3 Bft) 100,00 %
27.01.2020 17:02 7,9 C 7,2 C 5,6 C 91 % 1004,0 hPa 0,0 l/m 0 min 0 min 0 W/m 12,9 km/h (3 Bft) 95,65 %
27.01.2020 17:04 7,9 C 7,2 C 5,6 C 91 % 1003,9 hPa 0,0 l/m 0 min 0 min 0 W/m 16,1 km/h (3 Bft) 100,00 %
27.01.2020 17:06 7,9 C 7,2 C 5,6 C 91 % 1003,9 hPa 0,0 l/m 0 min 0 min 0 W/m 0,0 km/h (0 Bft) 100,00 %
27.01.2020 17:08 7,9 C 7,2 C 5,6 C 91 % 1003,9 hPa 0,0 l/m 0 min 0 min 0 W/m 0,0 km/h (0 Bft) 100,00 %
27.01.2020 17:10 7,9 C 7,2 C 5,6 C 92 % 1003,9 hPa 0,0 l/m 0 min 0 min 0 W/m 0,0 km/h (0 Bft) 100,00 %
27.01.2020 17:12 7,9 C 7,2 C 5,6 C 92 % 1003,9 hPa 0,0 l/m 0 min 0 min 0 W/m 0,0 km/h (0 Bft) 97,83 %
27.01.2020 17:14 7,9 C 7,2 C 5,6 C 92 % 1003,9 hPa 0,0 l/m 0 min 0 min 0 W/m 16,1 km/h (3 Bft) 97,87 %
27.01.2020 17:16 7,8 C 7,2 C 5,6 C 92 % 1003,9 hPa 0,0 l/m 0 min 0 min 0 W/m 16,1 km/h (3 Bft) 97,87 %
27.01.2020 17:18 7,8 C 7,2 C 5,6 C 92 % 1003,9 hPa 0,0 l/m 0 min 0 min 0 W/m 19,3 km/h (3 Bft) 97,87 %
27.01.2020 17:20 7,8 C 7,2 C 5,6 C 92 % 1003,9 hPa 0,0 l/m 0 min 0 min 0 W/m 0,0 km/h (0 Bft) 97,87 %
27.01.2020 17:22 7,8 C 7,2 C 5,6 C 92 % 1003,8 hPa 0,0 l/m 0 min 0 min 0 W/m 0,0 km/h (0 Bft) 95,74 %
27.01.2020 17:24 7,8 C 6,7 C 5,6 C 92 % 1003,8 hPa 0,0 l/m 0 min 0 min 0 W/m 12,9 km/h (3 Bft) 97,83 %
27.01.2020 17:26 7,8 C 6,7 C 5,6 C 92 % 1003,7 hPa 0,0 l/m 0 min 0 min 0 W/m 12,9 km/h (3 Bft) 97,87 %
27.01.2020 17:28 7,7 C 6,7 C 5,6 C 92 % 1003,7 hPa 0,0 l/m 0 min 0 min 0 W/m 12,9 km/h (3 Bft) 95,74 %
27.01.2020 17:30 7,7 C 6,7 C 5,6 C 92 % 1003,7 hPa 0,0 l/m 0 min 0 min 0 W/m 19,3 km/h (3 Bft) 97,87 %
27.01.2020 17:32 7,7 C 6,7 C 5,6 C 92 % 1003,6 hPa 0,0 l/m 0 min 0 min 0 W/m 12,9 km/h (3 Bft) 95,74 %
27.01.2020 17:34 7,7 C 6,7 C 5,6 C 92 % 1003,5 hPa 0,0 l/m 0 min 0 min 0 W/m 0,0 km/h (0 Bft) 95,74 %
27.01.2020 17:36 7,7 C 6,7 C 5,6 C 92 % 1003,5 hPa 0,0 l/m 0 min 0 min 0 W/m 12,9 km/h (3 Bft) 95,65 %
27.01.2020 17:38 7,7 C 6,7 C 5,6 C 92 % 1003,5 hPa 0,0 l/m 0 min 0 min 0 W/m 16,1 km/h (3 Bft) 95,74 %
27.01.2020 17:40 7,6 C 6,7 C 5,6 C 92 % 1003,5 hPa 0,0 l/m 0 min 0 min 0 W/m 6,4 km/h (2 Bft) 95,74 %
27.01.2020 17:42 7,6 C 6,7 C 5,6 C 92 % 1003,4 hPa 0,0 l/m 0 min 0 min 0 W/m 16,1 km/h (3 Bft) 95,74 %
27.01.2020 17:44 7,6 C 6,7 C 5,6 C 92 % 1003,4 hPa 0,0 l/m 0 min 0 min 0 W/m 16,1 km/h (3 Bft) 97,87 %
27.01.2020 17:46 7,6 C 6,7 C 5,6 C 92 % 1003,4 hPa 0,0 l/m 0 min 0 min 0 W/m 16,1 km/h (3 Bft) 97,87 %
27.01.2020 17:48 7,6 C 6,7 C 5,6 C 92 % 1003,4 hPa 0,0 l/m 0 min 0 min 0 W/m 12,9 km/h (3 Bft) 97,83 %
27.01.2020 17:50 7,5 C 6,7 C 5,6 C 92 % 1003,3 hPa 0,0 l/m 0 min 0 min 0 W/m 6,4 km/h (2 Bft) 97,87 %
27.01.2020 17:52 7,5 C 6,7 C 5,6 C 92 % 1003,4 hPa 0,0 l/m 0 min 0 min 0 W/m 0,0 km/h (0 Bft) 93,62 %
27.01.2020 17:54 7,4 C 6,7 C 5,6 C 92 % 1003,3 hPa 0,0 l/m 0 min 0 min 0 W/m 0,0 km/h (0 Bft) 97,87 %
27.01.2020 17:56 7,4 C 6,1 C 5,0 C 92 % 1003,3 hPa 0,0 l/m 0 min 0 min 0 W/m 6,4 km/h (2 Bft) 97,87 %
27.01.2020 17:58 7,4 C 6,1 C 5,0 C 92 % 1003,3 hPa 0,0 l/m 0 min 0 min 0 W/m 19,3 km/h (3 Bft) 95,65 %
27.01.2020 18:00 7,4 C 6,1 C 5,0 C 92 % 1003,3 hPa 0,0 l/m 0 min 0 min 0 W/m 12,9 km/h (3 Bft) 97,87 %
27.01.2020 18:02 7,4 C 6,7 C 5,0 C 92 % 1003,2 hPa 0,0 l/m 0 min 0 min 0 W/m 16,1 km/h (3 Bft) 100,00 %
27.01.2020 18:04 7,3 C 6,7 C 5,0 C 92 % 1003,3 hPa 0,0 l/m 0 min 0 min 0 W/m 16,1 km/h (3 Bft) 100,00 %
27.01.2020 18:08 7,3 C 6,7 C 5,6 C 92 % 1003,2 hPa 0,0 l/m 0 min 0 min 0 W/m 16,1 km/h (3 Bft) 100,00 %
27.01.2020 18:10 7,3 C 6,7 C 5,6 C 92 % 1003,2 hPa 0,0 l/m 0 min 0 min 0 W/m 16,1 km/h (3 Bft) 97,87 %
27.01.2020 18:12 7,2 C 6,1 C 5,0 C 92 % 1003,1 hPa 0,0 l/m 0 min 0 min 0 W/m 12,9 km/h (3 Bft) 100,00 %
27.01.2020 18:14 7,2 C 6,7 C 5,0 C 92 % 1003,1 hPa 0,0 l/m 0 min 0 min 0 W/m 19,3 km/h (3 Bft) 100,00 %
27.01.2020 18:16 7,2 C 6,7 C 5,6 C 92 % 1003,0 hPa 0,0 l/m 0 min 0 min 0 W/m 12,9 km/h (3 Bft) 97,87 %
27.01.2020 18:18 7,2 C 6,7 C 5,6 C 92 % 1003,0 hPa 0,0 l/m 0 min 0 min 0 W/m 16,1 km/h (3 Bft) 95,74 %
27.01.2020 18:20 7,2 C 6,7 C 5,6 C 92 % 1003,0 hPa 0,0 l/m 0 min 0 min 0 W/m 16,1 km/h (3 Bft) 100,00 %
27.01.2020 18:22 7,2 C 6,7 C 5,6 C 92 % 1003,0 hPa 0,0 l/m 0 min 0 min 0 W/m 16,1 km/h (3 Bft) 100,00 %
27.01.2020 18:24 7,2 C 6,7 C 5,6 C 92 % 1002,9 hPa 0,0 l/m 0 min 0 min 0 W/m 12,9 km/h (3 Bft) 100,00 %
27.01.2020 18:26 7,2 C 6,7 C 5,6 C 92 % 1003,0 hPa 0,0 l/m 0 min 0 min 0 W/m 19,3 km/h (3 Bft) 100,00 %
27.01.2020 18:28 7,1 C 6,7 C 5,6 C 92 % 1002,9 hPa 0,0 l/m 0 min 0 min 0 W/m 12,9 km/h (3 Bft) 97,87 %
27.01.2020 18:30 7,1 C 6,1 C 5,0 C 92 % 1002,9 hPa 0,0 l/m 0 min 0 min 0 W/m 12,9 km/h (3 Bft) 100,00 %
27.01.2020 18:32 7,1 C 6,1 C 5,0 C 92 % 1002,8 hPa 0,0 l/m 0 min 0 min 0 W/m 16,1 km/h (3 Bft) 97,87 %
27.01.2020 18:34 7,1 C 6,1 C 5,0 C 92 % 1002,8 hPa 0,0 l/m 0 min 0 min 0 W/m 6,4 km/h (2 Bft) 100,00 %
27.01.2020 18:36 7,1 C 6,1 C 5,0 C 92 % 1002,8 hPa 0,0 l/m 0 min 0 min 0 W/m 16,1 km/h (3 Bft) 97,83 %
27.01.2020 18:38 7,1 C 6,1 C 5,0 C 92 % 1002,8 hPa 0,0 l/m 0 min 0 min 0 W/m 12,9 km/h (3 Bft) 97,87 %
27.01.2020 18:40 7,1 C 6,1 C 5,0 C 92 % 1002,8 hPa 0,0 l/m 0 min 0 min 0 W/m 16,1 km/h (3 Bft) 97,87 %
27.01.2020 18:42 7,1 C 6,1 C 5,0 C 92 % 1002,7 hPa 0,0 l/m 0 min 0 min 0 W/m 12,9 km/h (3 Bft) 97,87 %
27.01.2020 18:44 7,1 C 6,1 C 5,0 C 92 % 1002,7 hPa 0,0 l/m 0 min 0 min 0 W/m 16,1 km/h (3 Bft) 97,87 %
27.01.2020 18:46 7,1 C 6,1 C 5,0 C 92 % 1002,7 hPa 0,0 l/m 0 min 0 min 0 W/m 12,9 km/h (3 Bft) 97,87 %
27.01.2020 18:48 7,0 C 6,1 C 5,0 C 92 % 1002,6 hPa 0,0 l/m 0 min 0 min 0 W/m 16,1 km/h (3 Bft) 97,83 %
27.01.2020 18:50 7,1 C 6,1 C 5,0 C 92 % 1002,6 hPa 0,0 l/m 0 min 0 min 0 W/m 16,1 km/h (3 Bft) 97,87 %
27.01.2020 18:52 7,0 C 6,1 C 5,0 C 93 % 1002,5 hPa 0,0 l/m 0 min 0 min 0 W/m 12,9 km/h (3 Bft) 97,87 %
27.01.2020 18:54 7,0 C 6,1 C 5,0 C 93 % 1002,5 hPa 0,0 l/m 0 min 0 min 0 W/m 16,1 km/h (3 Bft) 97,87 %
27.01.2020 18:56 7,0 C 6,1 C 5,0 C 93 % 1002,5 hPa 0,0 l/m 0 min 0 min 0 W/m 19,3 km/h (3 Bft) 97,87 %
27.01.2020 18:58 6,9 C 6,1 C 5,0 C 93 % 1002,4 hPa 0,0 l/m 0 min 0 min 0 W/m 19,3 km/h (3 Bft) 97,87 %
27.01.2020 19:00 6,9 C 6,1 C 5,0 C 93 % 1002,4 hPa 0,0 l/m 0 min 0 min 0 W/m 19,3 km/h (3 Bft) 100,00 %
27.01.2020 19:02 6,9 C 6,1 C 5,0 C 93 % 1002,3 hPa 0,0 l/m 0 min 0 min 0 W/m 19,3 km/h (3 Bft) 97,87 %
27.01.2020 19:04 6,9 C 6,1 C 5,0 C 93 % 1002,3 hPa 0,0 l/m 0 min 0 min 0 W/m 19,3 km/h (3 Bft) 95,74 %
27.01.2020 19:06 6,9 C 6,1 C 5,0 C 93 % 1002,2 hPa 0,0 l/m 0 min 0 min 0 W/m 22,5 km/h (4 Bft) 97,87 %
27.01.2020 19:08 6,8 C 6,1 C 5,0 C 93 % 1002,2 hPa 0,0 l/m 0 min 0 min 0 W/m 22,5 km/h (4 Bft) 97,87 %
27.01.2020 19:10 6,8 C 6,1 C 5,0 C 93 % 1002,1 hPa 0,0 l/m 0 min 0 min 0 W/m 12,9 km/h (3 Bft) 53,19 %
27.01.2020 19:12 6,8 C 6,1 C 5,0 C 93 % 1002,1 hPa 0,0 l/m 0 min 0 min 0 W/m 22,5 km/h (4 Bft) 97,83 %
27.01.2020 19:14 6,8 C 6,1 C 5,0 C 93 % 1002,1 hPa 0,0 l/m 0 min 0 min 0 W/m 22,5 km/h (4 Bft) 97,87 %
27.01.2020 19:16 6,8 C 6,1 C 5,0 C 93 % 1002,0 hPa 0,0 l/m 0 min 0 min 0 W/m 22,5 km/h (4 Bft) 97,87 %
27.01.2020 19:18 6,8 C 6,1 C 5,0 C 93 % 1001,9 hPa 0,0 l/m 0 min 0 min 0 W/m 22,5 km/h (4 Bft) 97,87 %
27.01.2020 19:20 6,7 C 6,1 C 5,0 C 93 % 1002,0 hPa 0,0 l/m 0 min 0 min 0 W/m 16,1 km/h (3 Bft) 97,87 %
27.01.2020 19:22 6,7 C 6,1 C 5,0 C 93 % 1002,0 hPa 0,0 l/m 0 min 0 min 0 W/m 22,5 km/h (4 Bft) 95,65 %
27.01.2020 19:24 6,7 C 6,1 C 5,0 C 94 % 1002,0 hPa 0,0 l/m 0 min 0 min 0 W/m 19,3 km/h (3 Bft) 95,74 %
27.01.2020 19:26 6,7 C 6,1 C 5,0 C 94 % 1001,9 hPa 0,0 l/m 0 min 0 min 0 W/m 25,7 km/h (4 Bft) 93,62 %
27.01.2020 19:28 6,7 C 6,1 C 5,0 C 94 % 1001,8 hPa 0,0 l/m 0 min 0 min 0 W/m 16,1 km/h (3 Bft) 97,87 %
27.01.2020 19:30 6,7 C 6,1 C 5,0 C 93 % 1001,8 hPa 0,0 l/m 0 min 0 min 0 W/m 22,5 km/h (4 Bft) 95,74 %
27.01.2020 19:32 6,7 C 6,1 C 5,0 C 93 % 1001,8 hPa 0,0 l/m 0 min 0 min 0 W/m 22,5 km/h (4 Bft) 97,87 %
27.01.2020 19:34 6,7 C 6,1 C 5,0 C 93 % 1001,7 hPa 0,0 l/m 0 min 0 min 0 W/m 19,3 km/h (3 Bft) 97,83 %
27.01.2020 19:36 6,7 C 6,1 C 5,0 C 94 % 1001,6 hPa 0,0 l/m 0 min 0 min 0 W/m 29,0 km/h (5 Bft) 97,87 %
27.01.2020 19:38 6,7 C 6,1 C 5,0 C 94 % 1001,6 hPa 0,0 l/m 0 min 0 min 0 W/m 25,7 km/h (4 Bft) 97,87 %
27.01.2020 19:40 6,7 C 6,1 C 5,0 C 94 % 1001,6 hPa 0,0 l/m 0 min 0 min 0 W/m 25,7 km/h (4 Bft) 97,87 %
27.01.2020 19:42 6,7 C 6,1 C 5,6 C 94 % 1001,6 hPa 0,0 l/m 0 min 0 min 0 W/m 22,5 km/h (4 Bft) 95,74 %
27.01.2020 19:44 6,7 C 6,1 C 5,6 C 94 % 1001,6 hPa 0,0 l/m 0 min 0 min 0 W/m 25,7 km/h (4 Bft) 97,87 %
27.01.2020 19:46 6,7 C 6,1 C 5,6 C 94 % 1001,5 hPa 0,0 l/m 0 min 0 min 0 W/m 29,0 km/h (5 Bft) 95,65 %
27.01.2020 19:48 6,7 C 6,1 C 5,6 C 94 % 1001,5 hPa 0,0 l/m 0 min 0 min 0 W/m 19,3 km/h (3 Bft) 97,87 %
27.01.2020 19:50 6,7 C 6,1 C 5,6 C 94 % 1001,4 hPa 0,0 l/m 0 min 0 min 0 W/m 29,0 km/h (5 Bft) 95,74 %
27.01.2020 19:52 6,8 C 6,1 C 5,6 C 94 % 1001,4 hPa 0,0 l/m 0 min 0 min 0 W/m 25,7 km/h (4 Bft) 95,74 %
27.01.2020 19:54 6,8 C 6,1 C 5,6 C 94 % 1001,4 hPa 0,0 l/m 0 min 0 min 0 W/m 19,3 km/h (3 Bft) 91,49 %
27.01.2020 19:56 6,8 C 6,1 C 5,6 C 95 % 1001,3 hPa 0,0 l/m 0 min 0 min 0 W/m 22,5 km/h (4 Bft) 93,62 %
27.01.2020 19:58 6,8 C 6,1 C 5,6 C 95 % 1001,3 hPa 0,0 l/m 0 min 0 min 0 W/m 22,5 km/h (4 Bft) 93,48 %
27.01.2020 20:00 6,8 C 6,1 C 5,6 C 95 % 1001,3 hPa 0,0 l/m 0 min 0 min 0 W/m 25,7 km/h (4 Bft) 95,74 %
27.01.2020 20:02 6,8 C 6,1 C 5,6 C 95 % 1001,2 hPa 0,0 l/m 0 min 0 min 0 W/m 25,7 km/h (4 Bft) 89,36 %
27.01.2020 20:04 6,8 C 6,1 C 5,6 C 95 % 1001,2 hPa 0,0 l/m 0 min 0 min 0 W/m 22,5 km/h (4 Bft) 95,74 %
27.01.2020 20:06 6,8 C 6,1 C 5,6 C 95 % 1001,0 hPa 0,0 l/m 0 min 0 min 0 W/m 19,3 km/h (3 Bft) 93,62 %
27.01.2020 20:08 6,8 C 6,1 C 5,6 C 95 % 1001,0 hPa 0,0 l/m 0 min 0 min 0 W/m 22,5 km/h (4 Bft) 95,74 %
27.01.2020 20:10 6,8 C 6,1 C 5,6 C 95 % 1001,0 hPa 0,0 l/m 0 min 0 min 0 W/m 25,7 km/h (4 Bft) 95,65 %
27.01.2020 20:12 6,8 C 6,1 C 5,6 C 95 % 1001,0 hPa 0,0 l/m 0 min 2 min 0 W/m 25,7 km/h (4 Bft) 95,74 %
27.01.2020 20:14 6,8 C 5,6 C 5,0 C 95 % 1000,9 hPa 0,0 l/m 0 min 2 min 0 W/m 25,7 km/h (4 Bft) 95,74 %
27.01.2020 20:16 6,8 C 5,6 C 5,0 C 95 % 1000,9 hPa 0,0 l/m 0 min 2 min 0 W/m 19,3 km/h (3 Bft) 95,74 %
27.01.2020 20:18 6,8 C 5,6 C 5,0 C 96 % 1000,7 hPa 0,0 l/m 0 min 2 min 0 W/m 22,5 km/h (4 Bft) 93,62 %
27.01.2020 20:20 6,8 C 5,6 C 5,0 C 96 % 1000,7 hPa 0,0 l/m 0 min 0 min 0 W/m 16,1 km/h (3 Bft) 95,65 %
27.01.2020 20:22 6,8 C 5,6 C 5,0 C 95 % 1000,6 hPa 0,0 l/m 0 min 0 min 0 W/m 22,5 km/h (4 Bft) 97,87 %
27.01.2020 20:24 6,8 C 5,6 C 5,0 C 96 % 1000,6 hPa 0,0 l/m 0 min 0 min 0 W/m 16,1 km/h (3 Bft) 97,87 %
27.01.2020 20:26 6,8 C 5,6 C 5,0 C 96 % 1000,6 hPa 0,0 l/m 0 min 0 min 0 W/m 19,3 km/h (3 Bft) 97,87 %
27.01.2020 20:28 6,8 C 5,6 C 5,0 C 96 % 1000,4 hPa 0,0 l/m 0 min 0 min 0 W/m 16,1 km/h (3 Bft) 97,87 %
27.01.2020 20:30 6,8 C 5,6 C 5,0 C 96 % 1000,4 hPa 0,0 l/m 0 min 0 min 0 W/m 19,3 km/h (3 Bft) 97,87 %
27.01.2020 20:32 6,8 C 5,6 C 5,0 C 96 % 1000,3 hPa 0,0 l/m 0 min 0 min 0 W/m 19,3 km/h (3 Bft) 97,83 %
27.01.2020 20:34 6,7 C 5,6 C 5,0 C 96 % 1000,4 hPa 0,0 l/m 0 min 0 min 0 W/m 19,3 km/h (3 Bft) 97,87 %
27.01.2020 20:36 6,7 C 5,6 C 5,0 C 96 % 1000,3 hPa 0,0 l/m 0 min 0 min 0 W/m 22,5 km/h (4 Bft) 95,74 %
27.01.2020 20:38 6,7 C 5,6 C 5,0 C 96 % 1000,2 hPa 0,0 l/m 0 min 0 min 0 W/m 19,3 km/h (3 Bft) 97,87 %
27.01.2020 20:40 6,7 C 5,6 C 5,0 C 96 % 1000,2 hPa 0,0 l/m 0 min 0 min 0 W/m 16,1 km/h (3 Bft) 100,00 %
27.01.2020 20:42 6,7 C 5,6 C 5,0 C 96 % 1000,2 hPa 0,0 l/m 0 min 0 min 0 W/m 16,1 km/h (3 Bft) 100,00 %
27.01.2020 20:44 6,7 C 5,6 C 5,0 C 96 % 1000,1 hPa 0,0 l/m 0 min 0 min 0 W/m 19,3 km/h (3 Bft) 100,00 %
27.01.2020 20:46 6,7 C 5,6 C 5,0 C 96 % 1000,1 hPa 0,0 l/m 0 min 0 min 0 W/m 19,3 km/h (3 Bft) 100,00 %
27.01.2020 20:48 6,7 C 5,6 C 5,0 C 96 % 1000,0 hPa 0,0 l/m 0 min 0 min 0 W/m 22,5 km/h (4 Bft) 100,00 %
27.01.2020 20:50 6,7 C 5,6 C 5,0 C 96 % 999,9 hPa 0,0 l/m 0 min 0 min 0 W/m 16,1 km/h (3 Bft) 100,00 %
27.01.2020 20:52 6,7 C 5,6 C 5,0 C 96 % 999,9 hPa 0,0 l/m 0 min 0 min 0 W/m 12,9 km/h (3 Bft) 100,00 %
27.01.2020 20:54 6,7 C 5,6 C 5,0 C 96 % 999,8 hPa 0,0 l/m 0 min 0 min 0 W/m 19,3 km/h (3 Bft) 100,00 %
27.01.2020 20:56 6,7 C 5,6 C 5,0 C 96 % 999,7 hPa 0,0 l/m 0 min 0 min 0 W/m 19,3 km/h (3 Bft) 100,00 %
27.01.2020 20:58 6,7 C 5,6 C 5,0 C 96 % 999,7 hPa 0,0 l/m 0 min 0 min 0 W/m 19,3 km/h (3 Bft) 100,00 %
27.01.2020 21:00 6,7 C 5,6 C 5,0 C 96 % 999,6 hPa 0,0 l/m 0 min 0 min 0 W/m 16,1 km/h (3 Bft) 100,00 %
27.01.2020 21:02 6,7 C 5,6 C 5,0 C 97 % 999,4 hPa 0,0 l/m 0 min 0 min 0 W/m 16,1 km/h (3 Bft) 100,00 %
27.01.2020 21:04 6,7 C 5,6 C 5,0 C 97 % 999,5 hPa 0,0 l/m 0 min 0 min 0 W/m 12,9 km/h (3 Bft) 100,00 %
27.01.2020 21:06 6,7 C 5,6 C 5,0 C 97 % 999,4 hPa 0,0 l/m 0 min 0 min 0 W/m 16,1 km/h (3 Bft) 100,00 %
27.01.2020 21:08 6,7 C 5,6 C 5,0 C 96 % 999,3 hPa 0,0 l/m 0 min 0 min 0 W/m 12,9 km/h (3 Bft) 100,00 %
27.01.2020 21:10 6,7 C 5,6 C 5,0 C 96 % 999,2 hPa 0,0 l/m 0 min 0 min 0 W/m 12,9 km/h (3 Bft) 100,00 %
27.01.2020 21:12 6,7 C 5,6 C 5,0 C 96 % 999,1 hPa 0,0 l/m 0 min 0 min 0 W/m 16,1 km/h (3 Bft) 93,62 %
27.01.2020 21:14 6,7 C 6,1 C 5,0 C 96 % 999,2 hPa 0,0 l/m 0 min 0 min 0 W/m 22,5 km/h (4 Bft) 97,87 %
27.01.2020 21:16 6,7 C 6,1 C 5,0 C 96 % 999,3 hPa 0,0 l/m 0 min 0 min 0 W/m 19,3 km/h (3 Bft) 100,00 %
27.01.2020 21:18 6,7 C 6,1 C 5,6 C 96 % 999,4 hPa 0,0 l/m 0 min 0 min 0 W/m 22,5 km/h (4 Bft) 97,87 %
27.01.2020 21:20 6,7 C 6,1 C 5,6 C 97 % 999,4 hPa 0,0 l/m 0 min 0 min 0 W/m 19,3 km/h (3 Bft) 100,00 %
27.01.2020 21:22 6,7 C 6,1 C 5,6 C 97 % 999,5 hPa 0,0 l/m 0 min 0 min 0 W/m 16,1 km/h (3 Bft) 100,00 %
27.01.2020 21:24 6,8 C 6,1 C 5,6 C 97 % 999,6 hPa 0,0 l/m 0 min 0 min 0 W/m 22,5 km/h (4 Bft) 97,87 %
27.01.2020 21:26 6,8 C 6,1 C 5,6 C 97 % 999,5 hPa 0,0 l/m 0 min 0 min 0 W/m 22,5 km/h (4 Bft) 100,00 %
27.01.2020 21:28 6,8 C 6,1 C 5,6 C 97 % 999,2 hPa 0,0 l/m 0 min 0 min 0 W/m 25,7 km/h (4 Bft) 97,87 %
27.01.2020 21:30 6,8 C 6,1 C 5,6 C 97 % 999,0 hPa 0,0 l/m 0 min 2 min 0 W/m 29,0 km/h (5 Bft) 100,00 %
27.01.2020 21:32 6,9 C 6,1 C 5,6 C 97 % 999,0 hPa 0,0 l/m 0 min 2 min 0 W/m 25,7 km/h (4 Bft) 97,83 %
27.01.2020 21:34 6,9 C 6,1 C 5,6 C 97 % 998,9 hPa 0,0 l/m 0 min 0 min 0 W/m 22,5 km/h (4 Bft) 97,87 %
27.01.2020 21:36 6,9 C 6,1 C 5,6 C 97 % 998,8 hPa 0,0 l/m 0 min 0 min 0 W/m 25,7 km/h (4 Bft) 97,87 %
27.01.2020 21:38 6,9 C 6,1 C 5,6 C 96 % 998,8 hPa 0,0 l/m 0 min 2 min 0 W/m 32,2 km/h (5 Bft) 97,87 %
27.01.2020 21:40 7,0 C 6,1 C 5,6 C 96 % 998,8 hPa 0,0 l/m 0 min 2 min 0 W/m 22,5 km/h (4 Bft) 97,87 %
27.01.2020 21:42 7,0 C 6,1 C 5,6 C 96 % 998,7 hPa 0,0 l/m 0 min 2 min 0 W/m 19,3 km/h (3 Bft) 97,83 %
27.01.2020 21:44 7,0 C 5,6 C 5,6 C 97 % 998,5 hPa 0,0 l/m 0 min 2 min 0 W/m 19,3 km/h (3 Bft) 97,87 %
27.01.2020 21:46 7,0 C 6,1 C 5,6 C 96 % 998,4 hPa 0,0 l/m 0 min 2 min 0 W/m 29,0 km/h (5 Bft) 97,87 %
27.01.2020 21:48 7,1 C 6,1 C 5,6 C 96 % 998,3 hPa 0,0 l/m 0 min 0 min 0 W/m 22,5 km/h (4 Bft) 95,74 %
27.01.2020 21:50 7,1 C 6,1 C 5,0 C 96 % 998,3 hPa 0,0 l/m 0 min 2 min 0 W/m 22,5 km/h (4 Bft) 97,87 %
27.01.2020 21:52 7,1 C 6,1 C 5,0 C 96 % 998,2 hPa 0,0 l/m 0 min 2 min 0 W/m 41,8 km/h (6 Bft) 95,74 %
27.01.2020 21:54 7,1 C 6,1 C 5,0 C 96 % 998,1 hPa 0,0 l/m 0 min 2 min 0 W/m 22,5 km/h (4 Bft) 63,83 %
27.01.2020 21:56 7,1 C 5,6 C 5,0 C 96 % 998,1 hPa 0,0 l/m 0 min 2 min 0 W/m 29,0 km/h (5 Bft) 90,70 %
27.01.2020 21:58 7,1 C 5,6 C 5,0 C 96 % 998,0 hPa 0,0 l/m 0 min 2 min 0 W/m 22,5 km/h (4 Bft) 93,62 %
27.01.2020 22:00 7,1 C 5,6 C 5,0 C 96 % 997,9 hPa 0,2 l/m 0 min 2 min 0 W/m 25,7 km/h (4 Bft) 95,74 %
27.01.2020 22:02 7,1 C 5,6 C 5,0 C 96 % 998,0 hPa 0,0 l/m 0 min 2 min 0 W/m 29,0 km/h (5 Bft) 97,87 %
27.01.2020 22:04 7,1 C 5,6 C 5,0 C 96 % 997,9 hPa 0,0 l/m 0 min 2 min 0 W/m 35,4 km/h (5 Bft) 97,87 %
27.01.2020 22:06 7,2 C 5,6 C 5,0 C 96 % 998,0 hPa 0,0 l/m 0 min 2 min 0 W/m 29,0 km/h (5 Bft) 97,83 %
27.01.2020 22:08 7,1 C 5,6 C 5,0 C 96 % 997,8 hPa 0,0 l/m 0 min 2 min 0 W/m 25,7 km/h (4 Bft) 97,87 %
27.01.2020 22:10 7,2 C 5,6 C 5,0 C 96 % 997,9 hPa 0,0 l/m 0 min 2 min 0 W/m 25,7 km/h (4 Bft) 100,00 %
27.01.2020 22:12 7,2 C 5,6 C 5,0 C 96 % 997,9 hPa 0,0 l/m 0 min 2 min 0 W/m 25,7 km/h (4 Bft) 97,87 %
27.01.2020 22:14 7,2 C 5,6 C 5,0 C 96 % 997,8 hPa 0,2 l/m 0 min 2 min 0 W/m 25,7 km/h (4 Bft) 97,87 %
27.01.2020 22:16 7,2 C 5,6 C 5,0 C 96 % 997,7 hPa 0,0 l/m 0 min 2 min 0 W/m 32,2 km/h (5 Bft) 95,74 %
27.01.2020 22:18 7,2 C 5,6 C 5,0 C 96 % 997,7 hPa 0,0 l/m 0 min 2 min 0 W/m 19,3 km/h (3 Bft) 95,65 %
27.01.2020 22:20 7,1 C 5,6 C 5,0 C 96 % 997,6 hPa 0,0 l/m 0 min 2 min 0 W/m 25,7 km/h (4 Bft) 97,87 %
27.01.2020 22:22 7,1 C 5,6 C 5,0 C 96 % 997,6 hPa 0,0 l/m 0 min 2 min 0 W/m 22,5 km/h (4 Bft) 97,87 %
27.01.2020 22:24 7,1 C 5,6 C 5,0 C 95 % 997,6 hPa 0,0 l/m 0 min 2 min 0 W/m 19,3 km/h (3 Bft) 97,87 %
27.01.2020 22:26 7,1 C 5,6 C 5,0 C 95 % 997,6 hPa 0,0 l/m 0 min 2 min 0 W/m 19,3 km/h (3 Bft) 97,87 %
27.01.2020 22:28 7,1 C 5,6 C 5,0 C 95 % 997,5 hPa 0,0 l/m 0 min 2 min 0 W/m 22,5 km/h (4 Bft) 97,87 %
27.01.2020 22:30 7,1 C 5,6 C 5,0 C 96 % 997,5 hPa 0,2 l/m 0 min 2 min 0 W/m 19,3 km/h (3 Bft) 95,65 %
27.01.2020 22:32 7,1 C 5,6 C 5,0 C 96 % 997,4 hPa 0,0 l/m 0 min 2 min 0 W/m 22,5 km/h (4 Bft) 97,87 %
27.01.2020 22:34 7,1 C 5,6 C 5,0 C 96 % 997,3 hPa 0,0 l/m 0 min 2 min 0 W/m 25,7 km/h (4 Bft) 97,87 %
27.01.2020 22:36 7,1 C 5,6 C 5,0 C 96 % 997,3 hPa 0,2 l/m 0 min 2 min 0 W/m 19,3 km/h (3 Bft) 93,62 %
27.01.2020 22:38 7,0 C 5,6 C 5,0 C 96 % 997,3 hPa 0,0 l/m 0 min 2 min 0 W/m 22,5 km/h (4 Bft) 95,74 %
27.01.2020 22:40 7,0 C 5,6 C 5,0 C 96 % 997,1 hPa 0,0 l/m 0 min 2 min 0 W/m 19,3 km/h (3 Bft) 97,83 %
27.01.2020 22:42 7,0 C 5,6 C 5,0 C 96 % 997,2 hPa 0,0 l/m 0 min 2 min 0 W/m 25,7 km/h (4 Bft) 95,74 %
27.01.2020 22:44 6,9 C 5,6 C 5,0 C 96 % 997,1 hPa 0,0 l/m 0 min 2 min 0 W/m 29,0 km/h (5 Bft) 97,87 %
27.01.2020 22:46 6,9 C 5,6 C 5,0 C 96 % 997,1 hPa 0,0 l/m 0 min 2 min 0 W/m 19,3 km/h (3 Bft) 95,74 %
27.01.2020 22:48 6,9 C 5,6 C 5,0 C 96 % 997,1 hPa 0,0 l/m 0 min 2 min 0 W/m 25,7 km/h (4 Bft) 95,74 %
27.01.2020 22:50 6,9 C 5,6 C 5,0 C 96 % 997,1 hPa 0,2 l/m 0 min 2 min 0 W/m 16,1 km/h (3 Bft) 95,74 %
27.01.2020 22:52 6,9 C 5,6 C 5,0 C 96 % 997,0 hPa 0,0 l/m 0 min 2 min 0 W/m 19,3 km/h (3 Bft) 95,65 %
27.01.2020 22:54 6,9 C 5,6 C 5,0 C 96 % 996,9 hPa 0,0 l/m 0 min 2 min 0 W/m 22,5 km/h (4 Bft) 95,74 %
27.01.2020 22:56 6,9 C 5,6 C 5,0 C 96 % 996,9 hPa 0,0 l/m 0 min 2 min 0 W/m 16,1 km/h (3 Bft) 93,62 %
27.01.2020 22:58 6,8 C 5,6 C 5,0 C 96 % 996,8 hPa 0,2 l/m 0 min 0 min 0 W/m 29,0 km/h (5 Bft) 95,74 %
27.01.2020 23:00 6,8 C 5,6 C 5,0 C 96 % 996,7 hPa 0,0 l/m 0 min 0 min 0 W/m 19,3 km/h (3 Bft) 95,74 %
27.01.2020 23:02 6,8 C 5,6 C 5,0 C 96 % 996,7 hPa 0,0 l/m 0 min 2 min 0 W/m 22,5 km/h (4 Bft) 95,74 %
27.01.2020 23:04 6,8 C 5,6 C 5,0 C 96 % 996,6 hPa 0,0 l/m 0 min 2 min 0 W/m 22,5 km/h (4 Bft) 95,65 %
27.01.2020 23:06 6,8 C 5,6 C 5,0 C 96 % 996,6 hPa 0,0 l/m 0 min 2 min 0 W/m 22,5 km/h (4 Bft) 95,74 %
27.01.2020 23:08 6,8 C 5,6 C 5,0 C 96 % 996,6 hPa 0,0 l/m 0 min 2 min 0 W/m 22,5 km/h (4 Bft) 95,74 %
27.01.2020 23:10 6,8 C 5,6 C 5,0 C 96 % 996,5 hPa 0,0 l/m 0 min 2 min 0 W/m 25,7 km/h (4 Bft) 95,74 %
27.01.2020 23:12 6,8 C 5,6 C 5,0 C 96 % 996,5 hPa 0,0 l/m 0 min 2 min 0 W/m 25,7 km/h (4 Bft) 93,62 %
27.01.2020 23:14 6,8 C 5,6 C 5,0 C 96 % 996,5 hPa 0,0 l/m 0 min 2 min 0 W/m 25,7 km/h (4 Bft) 97,87 %
27.01.2020 23:16 6,8 C 5,6 C 5,0 C 96 % 996,4 hPa 0,0 l/m 0 min 2 min 0 W/m 32,2 km/h (5 Bft) 95,65 %
27.01.2020 23:18 6,8 C 5,6 C 5,0 C 96 % 996,4 hPa 0,0 l/m 0 min 2 min 0 W/m 38,6 km/h (5 Bft) 97,87 %
27.01.2020 23:20 6,8 C 5,6 C 5,0 C 96 % 996,4 hPa 0,0 l/m 0 min 0 min 0 W/m 41,8 km/h (6 Bft) 97,87 %
27.01.2020 23:22 6,9 C 5,6 C 5,0 C 96 % 996,3 hPa 0,0 l/m 0 min 2 min 0 W/m 29,0 km/h (5 Bft) 93,62 %
27.01.2020 23:24 6,9 C 5,6 C 5,0 C 96 % 996,2 hPa 0,0 l/m 0 min 2 min 0 W/m 22,5 km/h (4 Bft) 95,74 %
27.01.2020 23:26 6,9 C 5,6 C 5,0 C 96 % 996,2 hPa 0,0 l/m 0 min 2 min 0 W/m 29,0 km/h (5 Bft) 97,87 %
27.01.2020 23:28 6,9 C 5,6 C 5,0 C 96 % 996,2 hPa 0,0 l/m 0 min 2 min 0 W/m 29,0 km/h (5 Bft) 95,65 %
27.01.2020 23:30 6,9 C 5,6 C 5,0 C 96 % 996,1 hPa 0,0 l/m 0 min 2 min 0 W/m 32,2 km/h (5 Bft) 93,62 %
27.01.2020 23:32 6,9 C 5,6 C 5,0 C 96 % 996,1 hPa 0,0 l/m 0 min 2 min 0 W/m 22,5 km/h (4 Bft) 93,62 %
27.01.2020 23:34 6,9 C 5,6 C 5,0 C 96 % 996,0 hPa 0,0 l/m 0 min 0 min 0 W/m 35,4 km/h (5 Bft) 97,87 %
27.01.2020 23:36 6,9 C 5,6 C 5,0 C 96 % 996,0 hPa 0,0 l/m 0 min 2 min 0 W/m 29,0 km/h (5 Bft) 95,74 %
27.01.2020 23:38 6,9 C 5,6 C 5,0 C 96 % 996,1 hPa 0,0 l/m 0 min 2 min 0 W/m 38,6 km/h (5 Bft) 95,74 %
27.01.2020 23:40 6,9 C 5,6 C 5,0 C 96 % 996,1 hPa 0,0 l/m 0 min 2 min 0 W/m 22,5 km/h (4 Bft) 97,83 %
27.01.2020 23:42 6,9 C 6,1 C 5,0 C 96 % 996,1 hPa 0,0 l/m 0 min 0 min 0 W/m 29,0 km/h (5 Bft) 93,62 %
27.01.2020 23:44 6,9 C 6,1 C 5,0 C 96 % 996,1 hPa 0,0 l/m 0 min 0 min 0 W/m 35,4 km/h (5 Bft) 100,00 %
27.01.2020 23:46 6,9 C 6,1 C 5,0 C 96 % 996,1 hPa 0,0 l/m 0 min 2 min 0 W/m 29,0 km/h (5 Bft) 95,74 %
27.01.2020 23:48 6,9 C 6,1 C 5,0 C 96 % 996,1 hPa 0,0 l/m 0 min 0 min 0 W/m 22,5 km/h (4 Bft) 97,87 %
27.01.2020 23:50 6,9 C 5,6 C 5,0 C 96 % 996,1 hPa 0,0 l/m 0 min 0 min 0 W/m 29,0 km/h (5 Bft) 97,87 %
27.01.2020 23:52 6,9 C 5,6 C 5,0 C 96 % 996,0 hPa 0,0 l/m 0 min 0 min 0 W/m 29,0 km/h (5 Bft) 100,00 %
27.01.2020 23:54 6,9 C 6,1 C 5,0 C 96 % 996,0 hPa 0,0 l/m 0 min 0 min 0 W/m 32,2 km/h (5 Bft) 100,00 %
27.01.2020 23:56 6,9 C 5,6 C 5,0 C 96 % 995,9 hPa 0,0 l/m 0 min 2 min 0 W/m 32,2 km/h (5 Bft) 100,00 %
27.01.2020 23:58 6,9 C 5,6 C 5,0 C 96 % 995,9 hPa 0,0 l/m 0 min 2 min 0 W/m 25,7 km/h (4 Bft) 100,00 %
_ Min-Zeit 00:00 00:00 00:00 16:08 23:56 - - - - 05:48 19:10
Minimum _ 5,3 C 4,4 C 3,9 C 91 % 995,9 hPa - - - - 0,0 km/h (0 Bft) 53,19 %
_ Max-Zeit 12:04 11:28 11:30 06:18 00:02 05:02 00:00 02:50 10:56 21:52 00:18
Maximum _ 8,7 C 7,8 C 7,2 C 97 % 1013,5 hPa 0,2 l/m 0 min 2 min 86 W/m 41,8 km/h
O-SO (6 Bft)
100,00 %
Durchschnitt _ 7,2 C 6,2 C 5,5 C 95 % 1006,5 hPa #3,6 l/m #0 min. #6:02 h 35 W/m 17,9 km/h (3 Bft) 97,35 %
© 2020 W. Hausmann